| time (UTC) | temp C | wind direction | speed KPH | gust KPH | rain 1hr cm | rain 24hr cm | rain mn cm | humidity % | barometer mb |
| 20260906225518 | 36 | 109 | 6.4 | 16.1 | 0.00 | 0.00 | 0.00 | 38 | 941.8 |
| 20260906225418 | 36 | 136 | 6.4 | 16.1 | 0.00 | 0.00 | 0.00 | 37 | 941.8 |
| 20260906225318 | 36 | 98 | 8.0 | 16.1 | 0.00 | 0.00 | 0.00 | 37 | 941.8 |
| 20260906225212 | 36 | 107 | 8.0 | 19.3 | 0.00 | 0.00 | 0.00 | 38 | 941.8 |
| 20260906225112 | 36 | 89 | 8.0 | 19.3 | 0.00 | 0.00 | 0.00 | 36 | 941.8 |
| 20260906225012 | 36 | 71 | 8.0 | 19.3 | 0.00 | 0.00 | 0.00 | 36 | 941.8 |
| 20260906224912 | 36 | 86 | 8.0 | 19.3 | 0.00 | 0.00 | 0.00 | 37 | 941.8 |
| 20260906224812 | 36 | 98 | 8.0 | 19.3 | 0.00 | 0.00 | 0.00 | 37 | 941.8 |
| 20260906224706 | 36 | 93 | 8.0 | 19.3 | 0.00 | 0.00 | 0.00 | 38 | 941.8 |
| 20260906224606 | 36 | 184 | 8.0 | 19.3 | 0.00 | 0.00 | 0.00 | 37 | 941.8 |
| 20260906224506 | 36 | 106 | 8.0 | 19.3 | 0.00 | 0.00 | 0.00 | 38 | 941.8 |
| 20260906224406 | 36 | 119 | 8.0 | 19.3 | 0.00 | 0.00 | 0.00 | 37 | 941.8 |
| 20260906224306 | 36 | 159 | 8.0 | 19.3 | 0.00 | 0.00 | 0.00 | 39 | 941.8 |
| 20260906224201 | 36 | 173 | 8.0 | 19.3 | 0.00 | 0.00 | 0.00 | 38 | 941.8 |
| 20260906224101 | 36 | 154 | 8.0 | 19.3 | 0.00 | 0.00 | 0.00 | 38 | 941.9 |
| 20260906224001 | 36 | 153 | 8.0 | 19.3 | 0.00 | 0.00 | 0.00 | 37 | 941.8 |
| 20260906223900 | 36 | 136 | 8.0 | 19.3 | 0.00 | 0.00 | 0.00 | 38 | 941.8 |
| 20260906223800 | 36 | 176 | 8.0 | 19.3 | 0.00 | 0.00 | 0.00 | 38 | 941.8 |
| 20260906223708 | 36 | 157 | 9.7 | 19.3 | 0.00 | 0.00 | 0.00 | 37 | 941.8 |
| 20260906223556 | 36 | 119 | 9.7 | 19.3 | 0.00 | 0.00 | 0.00 | 39 | 941.9 |
| 20260906223456 | 36 | 132 | 9.7 | 19.3 | 0.00 | 0.00 | 0.00 | 37 | 941.9 |
| 20260906223442 | 36 | 126 | 9.7 | 19.3 | 0.00 | 0.00 | 0.00 | 38 | 941.9 |
| 20260906223254 | 36 | 123 | 9.7 | 19.3 | 0.00 | 0.00 | 0.00 | 38 | 941.9 |
| 20260906223150 | 36 | 182 | 11.3 | 19.3 | 0.00 | 0.00 | 0.00 | 38 | 941.9 |
| 20260906223048 | 36 | 148 | 11.3 | 22.5 | 0.00 | 0.00 | 0.00 | 37 | 941.9 |
| 20260906222948 | 36 | 151 | 11.3 | 22.5 | 0.00 | 0.00 | 0.00 | 37 | 941.9 |
| 20260906222848 | 36 | 127 | 11.3 | 22.5 | 0.00 | 0.00 | 0.00 | 37 | 942.0 |
| 20260906222748 | 36 | 128 | 11.3 | 22.5 | 0.00 | 0.00 | 0.00 | 37 | 941.9 |
| 20260906222705 | 36 | 140 | 11.3 | 22.5 | 0.00 | 0.00 | 0.00 | 37 | 942.0 |
| 20260906222542 | 36 | 155 | 11.3 | 22.5 | 0.00 | 0.00 | 0.00 | 37 | 942.0 |
| 20260906222448 | 36 | 159 | 11.3 | 22.5 | 0.00 | 0.00 | 0.00 | 37 | 942.0 |
| 20260906222442 | 36 | 121 | 11.3 | 22.5 | 0.00 | 0.00 | 0.00 | 37 | 941.9 |
| 20260906222242 | 36 | 128 | 11.3 | 22.5 | 0.00 | 0.00 | 0.00 | 36 | 942.0 |
| 20260906222136 | 37 | 138 | 11.3 | 22.5 | 0.00 | 0.00 | 0.00 | 36 | 942.0 |
| 20260906222036 | 37 | 93 | 9.7 | 22.5 | 0.00 | 0.00 | 0.00 | 36 | 942.0 |
| 20260906221936 | 37 | 128 | 8.0 | 22.5 | 0.00 | 0.00 | 0.00 | 36 | 942.0 |
| 20260906221836 | 37 | 124 | 8.0 | 22.5 | 0.00 | 0.00 | 0.00 | 37 | 942.1 |
| 20260906221736 | 37 | 148 | 6.4 | 22.5 | 0.00 | 0.00 | 0.00 | 38 | 942.0 |
| 20260906221632 | 37 | 162 | 6.4 | 22.5 | 0.00 | 0.00 | 0.00 | 37 | 942.0 |
| 20260906221532 | 37 | 161 | 4.8 | 20.9 | 0.00 | 0.00 | 0.00 | 37 | 942.1 |
| 20260906221432 | 37 | 119 | 4.8 | 20.9 | 0.00 | 0.00 | 0.00 | 36 | 942.1 |
| 20260906221332 | 37 | 119 | 3.2 | 20.9 | 0.00 | 0.00 | 0.00 | 38 | 942.1 |
| 20260906221232 | 37 | 151 | 3.2 | 20.9 | 0.00 | 0.00 | 0.00 | 37 | 942.1 |
| 20260906221132 | 36 | 100 | 3.2 | 11.3 | 0.00 | 0.00 | 0.00 | 37 | 942.1 |
| 20260906221030 | 36 | 82 | 3.2 | 11.3 | 0.00 | 0.00 | 0.00 | 38 | 942.0 |
| 20260906220930 | 36 | 142 | 3.2 | 11.3 | 0.00 | 0.00 | 0.00 | 40 | 942.1 |
| 20260906220830 | 36 | 184 | 3.2 | 12.9 | 0.00 | 0.00 | 0.00 | 40 | 942.0 |
| 20260906220730 | 36 | 243 | 4.8 | 12.9 | 0.00 | 0.00 | 0.00 | 41 | 942.1 |
| 20260906220630 | 36 | 243 | 4.8 | 16.1 | 0.00 | 0.00 | 0.00 | 38 | 942.1 |
| 20260906220530 | 36 | 166 | 6.4 | 16.1 | 0.00 | 0.00 | 0.00 | 38 | 942.1 |
| 20260906220430 | 36 | 121 | 6.4 | 16.1 | 0.00 | 0.00 | 0.00 | 42 | 942.1 |
| 20260906220331 | 36 | 118 | 6.4 | 16.1 | 0.00 | 0.00 | 0.00 | 38 | 942.1 |
| 20260906220231 | 36 | 148 | 6.4 | 16.1 | 0.00 | 0.00 | 0.00 | 39 | 942.1 |
| 20260906220130 | 35 | 136 | 8.0 | 16.1 | 0.00 | 0.00 | 0.00 | 38 | 942.1 |
| 20260906220030 | 35 | 116 | 8.0 | 16.1 | 0.00 | 0.00 | 0.00 | 38 | 942.1 |
| 20260906215940 | 35 | 155 | 8.0 | 16.1 | 0.00 | 0.00 | 0.00 | 39 | 942.1 |
| 20260906215828 | 35 | 160 | 8.0 | 17.7 | 0.00 | 0.00 | 0.00 | 39 | 942.2 |
| 20260906215728 | 35 | 98 | 8.0 | 17.7 | 0.00 | 0.00 | 0.00 | 39 | 942.1 |
| 20260906215628 | 35 | 142 | 8.0 | 17.7 | 0.00 | 0.00 | 0.00 | 40 | 942.1 |
| 20260906215529 | 35 | 109 | 8.0 | 17.7 | 0.00 | 0.00 | 0.00 | 40 | 942.2 |
| 20260906215429 | 35 | 126 | 8.0 | 17.7 | 0.00 | 0.00 | 0.00 | 41 | 942.2 |
| 20260906215329 | 35 | 133 | 8.0 | 17.7 | 0.00 | 0.00 | 0.00 | 39 | 942.2 |
| 20260906215228 | 35 | 97 | 8.0 | 17.7 | 0.00 | 0.00 | 0.00 | 40 | 942.1 |
| 20260906215128 | 35 | 150 | 9.7 | 17.7 | 0.00 | 0.00 | 0.00 | 40 | 942.2 |
| 20260906215028 | 35 | 134 | 8.0 | 17.7 | 0.00 | 0.00 | 0.00 | 40 | 942.2 |
| 20260906214928 | 35 | 119 | 9.7 | 17.7 | 0.00 | 0.00 | 0.00 | 40 | 942.2 |
| 20260906214828 | 35 | 132 | 9.7 | 17.7 | 0.00 | 0.00 | 0.00 | 41 | 942.2 |
| 20260906214728 | 35 | 126 | 9.7 | 19.3 | 0.00 | 0.00 | 0.00 | 40 | 942.2 |
| 20260906214628 | 35 | 131 | 9.7 | 19.3 | 0.00 | 0.00 | 0.00 | 40 | 942.2 |
| 20260906214524 | 35 | 105 | 11.3 | 19.3 | 0.00 | 0.00 | 0.00 | 40 | 942.3 |
| 20260906214424 | 35 | 120 | 11.3 | 19.3 | 0.00 | 0.00 | 0.00 | 40 | 942.3 |
| 20260906214324 | 35 | 107 | 12.9 | 20.9 | 0.00 | 0.00 | 0.00 | 40 | 942.3 |
| 20260906214224 | 35 | 83 | 12.9 | 20.9 | 0.00 | 0.00 | 0.00 | 40 | 942.3 |
| 20260906214124 | 35 | 92 | 12.9 | 20.9 | 0.00 | 0.00 | 0.00 | 40 | 942.3 |
| 20260906214024 | 35 | 121 | 12.9 | 22.5 | 0.00 | 0.00 | 0.00 | 39 | 942.2 |
| 20260906213924 | 35 | 112 | 12.9 | 22.5 | 0.00 | 0.00 | 0.00 | 40 | 942.2 |
| 20260906213824 | 35 | 106 | 12.9 | 25.7 | 0.00 | 0.00 | 0.00 | 40 | 942.3 |
| 20260906213724 | 35 | 115 | 12.9 | 29.0 | 0.00 | 0.00 | 0.00 | 40 | 942.3 |
| 20260906213624 | 35 | 76 | 12.9 | 29.0 | 0.00 | 0.00 | 0.00 | 39 | 942.2 |
| 20260906213524 | 35 | 98 | 12.9 | 29.0 | 0.00 | 0.00 | 0.00 | 40 | 942.3 |
| 20260906213424 | 35 | 91 | 12.9 | 29.0 | 0.00 | 0.00 | 0.00 | 40 | 942.3 |
| 20260906213324 | 35 | 74 | 11.3 | 29.0 | 0.00 | 0.00 | 0.00 | 39 | 942.3 |
| 20260906213225 | 35 | 65 | 11.3 | 29.0 | 0.00 | 0.00 | 0.00 | 39 | 942.4 |
| 20260906213124 | 35 | 82 | 11.3 | 29.0 | 0.00 | 0.00 | 0.00 | 39 | 942.4 |
| 20260906213025 | 35 | 64 | 11.3 | 29.0 | 0.00 | 0.00 | 0.00 | 38 | 942.4 |
| 20260906212924 | 35 | 137 | 11.3 | 29.0 | 0.00 | 0.00 | 0.00 | 39 | 942.4 |
| 20260906212824 | 35 | 103 | 8.0 | 29.0 | 0.00 | 0.00 | 0.00 | 39 | 942.4 |
| 20260906212724 | 35 | 64 | 8.0 | 17.7 | 0.00 | 0.00 | 0.00 | 39 | 942.4 |
| 20260906212621 | 35 | 71 | 6.4 | 17.7 | 0.00 | 0.00 | 0.00 | 38 | 942.4 |
| 20260906212521 | 35 | 69 | 6.4 | 17.7 | 0.00 | 0.00 | 0.00 | 39 | 942.5 |
| 20260906212420 | 35 | 103 | 6.4 | 17.7 | 0.00 | 0.00 | 0.00 | 38 | 942.4 |
| 20260906212321 | 35 | 117 | 6.4 | 17.7 | 0.00 | 0.00 | 0.00 | 38 | 942.5 |
| 20260906212220 | 35 | 119 | 6.4 | 17.7 | 0.00 | 0.00 | 0.00 | 38 | 942.5 |
| 20260906212120 | 35 | 79 | 6.4 | 17.7 | 0.00 | 0.00 | 0.00 | 37 | 942.5 |
| 20260906212020 | 35 | 119 | 6.4 | 16.1 | 0.00 | 0.00 | 0.00 | 37 | 942.5 |
| 20260906211920 | 36 | 157 | 6.4 | 16.1 | 0.00 | 0.00 | 0.00 | 37 | 942.5 |
| 20260906211820 | 36 | 148 | 6.4 | 16.1 | 0.00 | 0.00 | 0.00 | 37 | 942.5 |
| 20260906211720 | 36 | 171 | 6.4 | 16.1 | 0.00 | 0.00 | 0.00 | 37 | 942.5 |
| 20260906211620 | 36 | 159 | 8.0 | 16.1 | 0.00 | 0.00 | 0.00 | 37 | 942.5 |
| 20260906211520 | 36 | 171 | 8.0 | 16.1 | 0.00 | 0.00 | 0.00 | 38 | 942.5 |
| 20260906211437 | 36 | 171 | 8.0 | 16.1 | 0.00 | 0.00 | 0.00 | 37 | 942.5 |
| 20260906211320 | 36 | 177 | 8.0 | 16.1 | 0.00 | 0.00 | 0.00 | 37 | 942.5 |
| 20260906211220 | 35 | 165 | 8.0 | 16.1 | 0.00 | 0.00 | 0.00 | 38 | 942.5 |
| 20260906211120 | 35 | 238 | 8.0 | 16.1 | 0.00 | 0.00 | 0.00 | 41 | 942.5 |
| 20260906211020 | 35 | 207 | 8.0 | 16.1 | 0.00 | 0.00 | 0.00 | 39 | 942.6 |
| 20260906210933 | 35 | 128 | 8.0 | 16.1 | 0.00 | 0.00 | 0.00 | 40 | 942.6 |
| 20260906210821 | 35 | 142 | 8.0 | 16.1 | 0.00 | 0.00 | 0.00 | 40 | 942.6 |
| 20260906210716 | 35 | 161 | 8.0 | 16.1 | 0.00 | 0.00 | 0.00 | 39 | 942.6 |
| 20260906210617 | 35 | 150 | 8.0 | 16.1 | 0.00 | 0.00 | 0.00 | 39 | 942.6 |
| 20260906210517 | 35 | 174 | 8.0 | 16.1 | 0.00 | 0.00 | 0.00 | 39 | 942.6 |
| 20260906210417 | 35 | 161 | 9.7 | 16.1 | 0.00 | 0.00 | 0.00 | 39 | 942.7 |
| 20260906210316 | 35 | 136 | 9.7 | 16.1 | 0.00 | 0.00 | 0.00 | 39 | 942.7 |
| 20260906210216 | 35 | 127 | 8.0 | 16.1 | 0.00 | 0.00 | 0.00 | 40 | 942.7 |
| 20260906210116 | 35 | 169 | 9.7 | 16.1 | 0.00 | 0.00 | 0.00 | 39 | 942.8 |
| 20260906210016 | 35 | 108 | 9.7 | 16.1 | 0.00 | 0.00 | 0.00 | 40 | 942.7 |
| 20260906205916 | 35 | 134 | 9.7 | 16.1 | 0.00 | 0.00 | 0.00 | 40 | 942.7 |
| 20260906205816 | 35 | 88 | 9.7 | 16.1 | 0.00 | 0.00 | 0.00 | 40 | 942.8 |
| 20260906205716 | 35 | 92 | 9.7 | 16.1 | 0.00 | 0.00 | 0.00 | 39 | 942.9 |
| 20260906205616 | 35 | 80 | 8.0 | 16.1 | 0.00 | 0.00 | 0.00 | 39 | 942.9 |
| 20260906205516 | 35 | 106 | 8.0 | 16.1 | 0.00 | 0.00 | 0.00 | 40 | 942.9 |
| 20260906205416 | 35 | 96 | 8.0 | 16.1 | 0.00 | 0.00 | 0.00 | 40 | 942.9 |
| 20260906205316 | 35 | 101 | 6.4 | 16.1 | 0.00 | 0.00 | 0.00 | 40 | 942.9 |
| 20260906205216 | 35 | 90 | 6.4 | 16.1 | 0.00 | 0.00 | 0.00 | 40 | 942.9 |
| 20260906205116 | 35 | 78 | 6.4 | 16.1 | 0.00 | 0.00 | 0.00 | 39 | 942.9 |
| 20260906205016 | 35 | 92 | 6.4 | 14.5 | 0.00 | 0.00 | 0.00 | 39 | 942.9 |
| 20260906204916 | 35 | 88 | 6.4 | 14.5 | 0.00 | 0.00 | 0.00 | 40 | 942.9 |
| 20260906204812 | 35 | 355 | 6.4 | 14.5 | 0.00 | 0.00 | 0.00 | 39 | 942.9 |
| 20260906204712 | 35 | 44 | 8.0 | 14.5 | 0.00 | 0.00 | 0.00 | 39 | 942.9 |
| 20260906204612 | 35 | 159 | 8.0 | 22.5 | 0.00 | 0.00 | 0.00 | 39 | 942.9 |
| 20260906204512 | 35 | 82 | 8.0 | 22.5 | 0.00 | 0.00 | 0.00 | 38 | 943.0 |
| 20260906204412 | 35 | 147 | 8.0 | 22.5 | 0.00 | 0.00 | 0.00 | 39 | 943.0 |
| 20260906204312 | 35 | 128 | 8.0 | 22.5 | 0.00 | 0.00 | 0.00 | 39 | 943.0 |
| 20260906204213 | 35 | 120 | 8.0 | 22.5 | 0.00 | 0.00 | 0.00 | 38 | 943.0 |
| 20260906204112 | 35 | 126 | 6.4 | 22.5 | 0.00 | 0.00 | 0.00 | 40 | 943.0 |
| 20260906204012 | 35 | 188 | 8.0 | 22.5 | 0.00 | 0.00 | 0.00 | 39 | 943.0 |
| 20260906203912 | 35 | 136 | 8.0 | 22.5 | 0.00 | 0.00 | 0.00 | 39 | 943.0 |
| 20260906203812 | 35 | 105 | 8.0 | 22.5 | 0.00 | 0.00 | 0.00 | 39 | 943.0 |
| 20260906203712 | 35 | 89 | 6.4 | 22.5 | 0.00 | 0.00 | 0.00 | 39 | 943.0 |
| 20260906203612 | 35 | 19 | 4.8 | 17.7 | 0.00 | 0.00 | 0.00 | 40 | 943.0 |
| 20260906203512 | 35 | 5 | 4.8 | 17.7 | 0.00 | 0.00 | 0.00 | 39 | 943.0 |
| 20260906203412 | 35 | 34 | 6.4 | 17.7 | 0.00 | 0.00 | 0.00 | 40 | 943.0 |
| 20260906203312 | 35 | 17 | 6.4 | 17.7 | 0.00 | 0.00 | 0.00 | 38 | 942.9 |
| 20260906203212 | 35 | 340 | 6.4 | 17.7 | 0.00 | 0.00 | 0.00 | 38 | 943.0 |
| 20260906203112 | 35 | 57 | 8.0 | 17.7 | 0.00 | 0.00 | 0.00 | 37 | 943.0 |
| 20260906203012 | 35 | 98 | 6.4 | 17.7 | 0.00 | 0.00 | 0.00 | 39 | 943.0 |
| 20260906202906 | 35 | 82 | 6.4 | 17.7 | 0.00 | 0.00 | 0.00 | 38 | 943.1 |
| 20260906202806 | 35 | 213 | 8.0 | 17.7 | 0.00 | 0.00 | 0.00 | 38 | 943.0 |
| 20260906202706 | 35 | 167 | 8.0 | 17.7 | 0.00 | 0.00 | 0.00 | 39 | 943.0 |
| 20260906202606 | 36 | 125 | 8.0 | 17.7 | 0.00 | 0.00 | 0.00 | 38 | 943.1 |
| 20260906202503 | 36 | 86 | 6.4 | 17.7 | 0.00 | 0.00 | 0.00 | 38 | 943.1 |
| 20260906202426 | 36 | 82 | 6.4 | 17.7 | 0.00 | 0.00 | 0.00 | 40 | 943.1 |
| 20260906202259 | 36 | 69 | 6.4 | 17.7 | 0.00 | 0.00 | 0.00 | 38 | 943.1 |
| 20260906202159 | 36 | 73 | 6.4 | 17.7 | 0.00 | 0.00 | 0.00 | 38 | 943.1 |
| 20260906202058 | 36 | 138 | 6.4 | 17.7 | 0.00 | 0.00 | 0.00 | 38 | 943.1 |
| 20260906201957 | 36 | 173 | 6.4 | 19.3 | 0.00 | 0.00 | 0.00 | 37 | 943.1 |
| 20260906201851 | 36 | 193 | 6.4 | 19.3 | 0.00 | 0.00 | 0.00 | 37 | 943.1 |
| 20260906201751 | 36 | 94 | 6.4 | 19.3 | 0.00 | 0.00 | 0.00 | 37 | 943.1 |
| 20260906201652 | 36 | 94 | 8.0 | 19.3 | 0.00 | 0.00 | 0.00 | 37 | 943.1 |
| 20260906201551 | 36 | 5 | 9.7 | 19.3 | 0.00 | 0.00 | 0.00 | 40 | 943.1 |
| 20260906201451 | 36 | 209 | 9.7 | 19.3 | 0.00 | 0.00 | 0.00 | 37 | 943.1 |
| 20260906201346 | 36 | 200 | 9.7 | 19.3 | 0.00 | 0.00 | 0.00 | 38 | 943.1 |
| 20260906201246 | 36 | 178 | 9.7 | 19.3 | 0.00 | 0.00 | 0.00 | 38 | 943.1 |
| 20260906201146 | 36 | 191 | 9.7 | 19.3 | 0.00 | 0.00 | 0.00 | 37 | 943.1 |
| 20260906201045 | 36 | 166 | 9.7 | 19.3 | 0.00 | 0.00 | 0.00 | 38 | 943.1 |
| 20260906200945 | 36 | 114 | 8.0 | 19.3 | 0.00 | 0.00 | 0.00 | 37 | 943.1 |
| 20260906200840 | 36 | 184 | 8.0 | 19.3 | 0.00 | 0.00 | 0.00 | 37 | 943.2 |
| 20260906200740 | 36 | 154 | 8.0 | 19.3 | 0.00 | 0.00 | 0.00 | 38 | 943.1 |
| 20260906200639 | 36 | 88 | 8.0 | 19.3 | 0.00 | 0.00 | 0.00 | 38 | 943.2 |
| 20260906200539 | 36 | 125 | 8.0 | 19.3 | 0.00 | 0.00 | 0.00 | 39 | 943.2 |
| 20260906200439 | 36 | 159 | 8.0 | 19.3 | 0.00 | 0.00 | 0.00 | 37 | 943.2 |
| 20260906200334 | 36 | 178 | 8.0 | 19.3 | 0.00 | 0.00 | 0.00 | 41 | 943.2 |
| 20260906200234 | 36 | 207 | 8.0 | 19.3 | 0.00 | 0.00 | 0.00 | 40 | 943.2 |
| 20260906200134 | 36 | 45 | 9.7 | 19.3 | 0.00 | 0.00 | 0.00 | 38 | 943.2 |
| 20260906200034 | 36 | 94 | 9.7 | 20.9 | 0.00 | 0.00 | 0.00 | 41 | 943.3 |
| 20260906195933 | 36 | 90 | 9.7 | 20.9 | 0.00 | 0.00 | 0.00 | 41 | 943.4 |
| 20260906195830 | 35 | 99 | 11.3 | 20.9 | 0.00 | 0.00 | 0.00 | 40 | 943.3 |
| 20260906195728 | 35 | 117 | 11.3 | 20.9 | 0.00 | 0.00 | 0.00 | 40 | 943.4 |
| 20260906195628 | 35 | 88 | 9.7 | 20.9 | 0.00 | 0.00 | 0.00 | 40 | 943.4 |
| 20260906195528 | 35 | 108 | 9.7 | 20.9 | 0.00 | 0.00 | 0.00 | 40 | 943.5 |
| 20260906195427 | 35 | 68 | 9.7 | 20.9 | 0.00 | 0.00 | 0.00 | 40 | 943.5 |
| 20260906195324 | 35 | 91 | 9.7 | 20.9 | 0.00 | 0.00 | 0.00 | 40 | 943.5 |
| 20260906195224 | 35 | 97 | 9.7 | 20.9 | 0.00 | 0.00 | 0.00 | 39 | 943.5 |
| 20260906195124 | 35 | 104 | 9.7 | 20.9 | 0.00 | 0.00 | 0.00 | 40 | 943.5 |
| 20260906195024 | 35 | 85 | 9.7 | 20.9 | 0.00 | 0.00 | 0.00 | 41 | 943.5 |
| 20260906194921 | 35 | 138 | 9.7 | 20.9 | 0.00 | 0.00 | 0.00 | 41 | 943.5 |
| 20260906194845 | 35 | 86 | 9.7 | 17.7 | 0.00 | 0.00 | 0.00 | 40 | 943.5 |
| 20260906194716 | 35 | 134 | 9.7 | 17.7 | 0.00 | 0.00 | 0.00 | 40 | 943.5 |
| 20260906194616 | 35 | 178 | 11.3 | 17.7 | 0.00 | 0.00 | 0.00 | 40 | 943.5 |
| 20260906194516 | 35 | 78 | 11.3 | 20.9 | 0.00 | 0.00 | 0.00 | 39 | 943.6 |
| 20260906194415 | 35 | 107 | 11.3 | 20.9 | 0.00 | 0.00 | 0.00 | 41 | 943.6 |
| 20260906194310 | 35 | 102 | 12.9 | 20.9 | 0.00 | 0.00 | 0.00 | 39 | 943.6 |
| 20260906194210 | 35 | 74 | 12.9 | 20.9 | 0.00 | 0.00 | 0.00 | 38 | 943.6 |
| 20260906194110 | 35 | 110 | 11.3 | 20.9 | 0.00 | 0.00 | 0.00 | 39 | 943.6 |
| 20260906194010 | 35 | 99 | 11.3 | 20.9 | 0.00 | 0.00 | 0.00 | 39 | 943.6 |
| 20260906193909 | 36 | 94 | 9.7 | 20.9 | 0.00 | 0.00 | 0.00 | 39 | 943.6 |
| 20260906193804 | 36 | 98 | 9.7 | 20.9 | 0.00 | 0.00 | 0.00 | 40 | 943.6 |
| 20260906193704 | 36 | 138 | 8.0 | 20.9 | 0.00 | 0.00 | 0.00 | 40 | 943.7 |
| 20260906193604 | 36 | 104 | 8.0 | 20.9 | 0.00 | 0.00 | 0.00 | 39 | 943.7 |
| 20260906193504 | 36 | 90 | 8.0 | 17.7 | 0.00 | 0.00 | 0.00 | 39 | 943.7 |
| 20260906193403 | 36 | 119 | 6.4 | 17.7 | 0.00 | 0.00 | 0.00 | 39 | 943.6 |
| 20260906193257 | 36 | 72 | 6.4 | 17.7 | 0.00 | 0.00 | 0.00 | 40 | 943.6 |
| 20260906193158 | 36 | 96 | 6.4 | 17.7 | 0.00 | 0.00 | 0.00 | 44 | 943.7 |
| 20260906193058 | 36 | 29 | 6.4 | 17.7 | 0.00 | 0.00 | 0.00 | 42 | 943.7 |
| 20260906192958 | 35 | 115 | 8.0 | 17.7 | 0.00 | 0.00 | 0.00 | 39 | 943.8 |
| 20260906192857 | 35 | 181 | 8.0 | 19.3 | 0.00 | 0.00 | 0.00 | 41 | 943.8 |
| 20260906192754 | 36 | 137 | 8.0 | 19.3 | 0.00 | 0.00 | 0.00 | 40 | 943.8 |
| 20260906192654 | 36 | 100 | 8.0 | 19.3 | 0.00 | 0.00 | 0.00 | 39 | 943.8 |
| 20260906192554 | 36 | 98 | 8.0 | 19.3 | 0.00 | 0.00 | 0.00 | 40 | 943.8 |
| 20260906192454 | 36 | 79 | 8.0 | 19.3 | 0.00 | 0.00 | 0.00 | 40 | 943.8 |
| 20260906192351 | 36 | 50 | 9.7 | 19.3 | 0.00 | 0.00 | 0.00 | 42 | 943.8 |
| 20260906192248 | 36 | 41 | 8.0 | 19.3 | 0.00 | 0.00 | 0.00 | 41 | 943.8 |
| 20260906192146 | 36 | 44 | 9.7 | 19.3 | 0.00 | 0.00 | 0.00 | 39 | 943.8 |
| 20260906192046 | 36 | 69 | 8.0 | 19.3 | 0.00 | 0.00 | 0.00 | 41 | 943.9 |
| 20260906191946 | 35 | 84 | 8.0 | 19.3 | 0.00 | 0.00 | 0.00 | 40 | 943.9 |
| 20260906191845 | 35 | 78 | 8.0 | 19.3 | 0.00 | 0.00 | 0.00 | 41 | 943.9 |
| 20260906191742 | 35 | 105 | 8.0 | 19.3 | 0.00 | 0.00 | 0.00 | 40 | 943.9 |
| 20260906191642 | 35 | 155 | 8.0 | 19.3 | 0.00 | 0.00 | 0.00 | 40 | 943.9 |
| 20260906191542 | 35 | 115 | 9.7 | 19.3 | 0.00 | 0.00 | 0.00 | 40 | 943.9 |
| 20260906191442 | 35 | 157 | 9.7 | 20.9 | 0.00 | 0.00 | 0.00 | 42 | 943.9 |
| 20260906191339 | 35 | 90 | 9.7 | 20.9 | 0.00 | 0.00 | 0.00 | 40 | 943.9 |
| 20260906191235 | 35 | 343 | 11.3 | 20.9 | 0.00 | 0.00 | 0.00 | 46 | 944.0 |
| 20260906191134 | 35 | 60 | 11.3 | 20.9 | 0.00 | 0.00 | 0.00 | 39 | 944.0 |
| 20260906191033 | 35 | 63 | 12.9 | 22.5 | 0.00 | 0.00 | 0.00 | 40 | 944.0 |
| 20260906190934 | 35 | 68 | 12.9 | 22.5 | 0.00 | 0.00 | 0.00 | 43 | 944.1 |
| 20260906190834 | 35 | 84 | 14.5 | 22.5 | 0.00 | 0.00 | 0.00 | 40 | 944.0 |
| 20260906190728 | 35 | 115 | 14.5 | 22.5 | 0.00 | 0.00 | 0.00 | 40 | 944.0 |
| 20260906190627 | 35 | 100 | 14.5 | 22.5 | 0.00 | 0.00 | 0.00 | 41 | 944.1 |
| 20260906190528 | 35 | 82 | 14.5 | 22.5 | 0.00 | 0.00 | 0.00 | 40 | 944.1 |
| 20260906190427 | 35 | 88 | 12.9 | 22.5 | 0.00 | 0.00 | 0.00 | 41 | 944.1 |
| 20260906190327 | 35 | 111 | 12.9 | 22.5 | 0.00 | 0.00 | 0.00 | 42 | 944.1 |
| 20260906190222 | 35 | 100 | 11.3 | 22.5 | 0.00 | 0.00 | 0.00 | 41 | 944.0 |
| 20260906190122 | 35 | 105 | 11.3 | 22.5 | 0.00 | 0.00 | 0.00 | 41 | 944.0 |
| 20260906190022 | 35 | 104 | 11.3 | 24.1 | 0.00 | 0.00 | 0.00 | 40 | 944.1 |
| 20260906185922 | 36 | 123 | 11.3 | 25.7 | 0.00 | 0.00 | 0.00 | 40 | 944.1 |
| 20260906185821 | 36 | 87 | 11.3 | 25.7 | 0.00 | 0.00 | 0.00 | 42 | 944.1 |
| 20260906185744 | 36 | 121 | 9.7 | 25.7 | 0.00 | 0.00 | 0.00 | 40 | 944.1 |
| 20260906185616 | 36 | 153 | 9.7 | 25.7 | 0.00 | 0.00 | 0.00 | 40 | 944.0 |
| 20260906185516 | 35 | 192 | 9.7 | 25.7 | 0.00 | 0.00 | 0.00 | 40 | 944.0 |
| 20260906185416 | 35 | 185 | 9.7 | 25.7 | 0.00 | 0.00 | 0.00 | 41 | 944.1 |
| 20260906185315 | 35 | 142 | 9.7 | 25.7 | 0.00 | 0.00 | 0.00 | 40 | 944.1 |
| 20260906185210 | 35 | 157 | 11.3 | 25.7 | 0.00 | 0.00 | 0.00 | 40 | 944.2 |
| 20260906185110 | 35 | 175 | 9.7 | 25.7 | 0.00 | 0.00 | 0.00 | 40 | 944.1 |
| 20260906185010 | 35 | 108 | 9.7 | 24.1 | 0.00 | 0.00 | 0.00 | 42 | 944.2 |
| 20260906184910 | 35 | 134 | 9.7 | 19.3 | 0.00 | 0.00 | 0.00 | 41 | 944.2 |
| 20260906184809 | 35 | 112 | 9.7 | 19.3 | 0.00 | 0.00 | 0.00 | 42 | 944.2 |
| 20260906184704 | 35 | 192 | 8.0 | 19.3 | 0.00 | 0.00 | 0.00 | 42 | 944.2 |
| 20260906184604 | 35 | 173 | 8.0 | 19.3 | 0.00 | 0.00 | 0.00 | 41 | 944.3 |
| 20260906184504 | 35 | 147 | 8.0 | 19.3 | 0.00 | 0.00 | 0.00 | 44 | 944.3 |
| 20260906184404 | 35 | 142 | 8.0 | 19.3 | 0.00 | 0.00 | 0.00 | 42 | 944.3 |
| 20260906184303 | 35 | 147 | 8.0 | 19.3 | 0.00 | 0.00 | 0.00 | 44 | 944.3 |
| 20260906184157 | 35 | 115 | 8.0 | 19.3 | 0.00 | 0.00 | 0.00 | 42 | 944.3 |
| 20260906184058 | 35 | 117 | 6.4 | 19.3 | 0.00 | 0.00 | 0.00 | 43 | 944.4 |
| 20260906183958 | 35 | 115 | 6.4 | 19.3 | 0.00 | 0.00 | 0.00 | 43 | 944.4 |
| 20260906183858 | 35 | 168 | 6.4 | 19.3 | 0.00 | 0.00 | 0.00 | 43 | 944.4 |
| 20260906183757 | 35 | 96 | 6.4 | 19.3 | 0.00 | 0.00 | 0.00 | 42 | 944.4 |
| 20260906183651 | 35 | 271 | 6.4 | 19.3 | 0.00 | 0.00 | 0.00 | 42 | 944.4 |
| 20260906183552 | 35 | 187 | 6.4 | 19.3 | 0.00 | 0.00 | 0.00 | 41 | 944.4 |
| 20260906183452 | 35 | 120 | 4.8 | 19.3 | 0.00 | 0.00 | 0.00 | 41 | 944.4 |
| 20260906183352 | 35 | 141 | 4.8 | 9.7 | 0.00 | 0.00 | 0.00 | 41 | 944.5 |
| 20260906183251 | 35 | 134 | 4.8 | 11.3 | 0.00 | 0.00 | 0.00 | 41 | 944.5 |
| 20260906183145 | 35 | 165 | 4.8 | 12.9 | 0.00 | 0.00 | 0.00 | 42 | 944.5 |
| 20260906183046 | 35 | 188 | 6.4 | 16.1 | 0.00 | 0.00 | 0.00 | 43 | 944.4 |
| 20260906182946 | 35 | 94 | 6.4 | 20.9 | 0.00 | 0.00 | 0.00 | 42 | 944.5 |
| 20260906182846 | 35 | 166 | 6.4 | 20.9 | 0.00 | 0.00 | 0.00 | 42 | 944.5 |
| 20260906182745 | 35 | 210 | 6.4 | 20.9 | 0.00 | 0.00 | 0.00 | 42 | 944.5 |
| 20260906182639 | 35 | 234 | 8.0 | 20.9 | 0.00 | 0.00 | 0.00 | 42 | 944.5 |
| 20260906182540 | 35 | 198 | 8.0 | 20.9 | 0.00 | 0.00 | 0.00 | 45 | 944.5 |
| 20260906182440 | 35 | 296 | 9.7 | 20.9 | 0.00 | 0.00 | 0.00 | 44 | 944.6 |
| 20260906182339 | 35 | 322 | 9.7 | 20.9 | 0.00 | 0.00 | 0.00 | 46 | 944.6 |
| 20260906182240 | 35 | 22 | 9.7 | 20.9 | 0.00 | 0.00 | 0.00 | 43 | 944.6 |
| 20260906182133 | 35 | 124 | 11.3 | 20.9 | 0.00 | 0.00 | 0.00 | 43 | 944.6 |
| 20260906182033 | 35 | 144 | 9.7 | 20.9 | 0.00 | 0.00 | 0.00 | 47 | 944.6 |
| 20260906181933 | 34 | 50 | 9.7 | 20.9 | 0.00 | 0.00 | 0.00 | 43 | 944.6 |
| 20260906181833 | 34 | 82 | 9.7 | 20.9 | 0.00 | 0.00 | 0.00 | 43 | 944.6 |
| 20260906181733 | 34 | 53 | 9.7 | 20.9 | 0.00 | 0.00 | 0.00 | 44 | 944.7 |
| 20260906181629 | 34 | 92 | 9.7 | 20.9 | 0.00 | 0.00 | 0.00 | 42 | 944.7 |
| 20260906181529 | 34 | 74 | 8.0 | 20.9 | 0.00 | 0.00 | 0.00 | 43 | 944.7 |
| 20260906181429 | 34 | 111 | 8.0 | 17.7 | 0.00 | 0.00 | 0.00 | 43 | 944.7 |
| 20260906181329 | 34 | 123 | 6.4 | 16.1 | 0.00 | 0.00 | 0.00 | 42 | 944.7 |
| 20260906181227 | 35 | 107 | 6.4 | 16.1 | 0.00 | 0.00 | 0.00 | 43 | 944.8 |
| 20260906181125 | 35 | 119 | 6.4 | 16.1 | 0.00 | 0.00 | 0.00 | 44 | 944.7 |
| 20260906181025 | 35 | 42 | 6.4 | 14.5 | 0.00 | 0.00 | 0.00 | 42 | 944.7 |
| 20260906180926 | 35 | 36 | 4.8 | 14.5 | 0.00 | 0.00 | 0.00 | 44 | 944.8 |
| 20260906180823 | 35 | 87 | 4.8 | 14.5 | 0.00 | 0.00 | 0.00 | 49 | 944.8 |
| 20260906180721 | 35 | 61 | 4.8 | 14.5 | 0.00 | 0.00 | 0.00 | 44 | 944.8 |
| 20260906180616 | 35 | 49 | 4.8 | 12.9 | 0.00 | 0.00 | 0.00 | 44 | 944.8 |
| 20260906180516 | 34 | 34 | 4.8 | 12.9 | 0.00 | 0.00 | 0.00 | 44 | 944.8 |
| 20260906180416 | 34 | 71 | 4.8 | 12.9 | 0.00 | 0.00 | 0.00 | 46 | 944.9 |
| 20260906180316 | 34 | 304 | 4.8 | 12.9 | 0.00 | 0.00 | 0.00 | 46 | 944.9 |
| 20260906180215 | 34 | 325 | 4.8 | 12.9 | 0.00 | 0.00 | 0.00 | 44 | 944.9 |
| 20260906180110 | 33 | 10 | 4.8 | 14.5 | 0.00 | 0.00 | 0.00 | 45 | 944.9 |
| 20260906180010 | 33 | 53 | 6.4 | 14.5 | 0.00 | 0.00 | 0.00 | 45 | 945.0 |
| 20260906175910 | 33 | 134 | 6.4 | 14.5 | 0.00 | 0.00 | 0.00 | 46 | 945.0 |
| 20260906175810 | 33 | 112 | 6.4 | 14.5 | 0.00 | 0.00 | 0.00 | 45 | 945.0 |
| 20260906175709 | 33 | 89 | 8.0 | 14.5 | 0.00 | 0.00 | 0.00 | 45 | 945.1 |
| 20260906175604 | 33 | 33 | 8.0 | 14.5 | 0.00 | 0.00 | 0.00 | 45 | 945.1 |
| 20260906175504 | 33 | 42 | 9.7 | 17.7 | 0.00 | 0.00 | 0.00 | 46 | 945.2 |
| 20260906175404 | 33 | 45 | 9.7 | 17.7 | 0.00 | 0.00 | 0.00 | 45 | 945.2 |
| 20260906175306 | 33 | 34 | 9.7 | 17.7 | 0.00 | 0.00 | 0.00 | 45 | 945.2 |
| 20260906175203 | 33 | 36 | 9.7 | 17.7 | 0.00 | 0.00 | 0.00 | 45 | 945.2 |
| 20260906175057 | 33 | 82 | 9.7 | 17.7 | 0.00 | 0.00 | 0.00 | 45 | 945.2 |
| 20260906174958 | 34 | 56 | 9.7 | 17.7 | 0.00 | 0.00 | 0.00 | 44 | 945.2 |
| 20260906174858 | 34 | 65 | 9.7 | 17.7 | 0.00 | 0.00 | 0.00 | 45 | 945.2 |
| 20260906174758 | 34 | 36 | 9.7 | 17.7 | 0.00 | 0.00 | 0.00 | 43 | 945.3 |
| 20260906174658 | 34 | 74 | 9.7 | 17.7 | 0.00 | 0.00 | 0.00 | 43 | 945.2 |
| 20260906174551 | 35 | 72 | 9.7 | 19.3 | 0.00 | 0.00 | 0.00 | 45 | 945.3 |
| 20260906174451 | 35 | 84 | 9.7 | 19.3 | 0.00 | 0.00 | 0.00 | 44 | 945.3 |
| 20260906174352 | 35 | 355 | 9.7 | 19.3 | 0.00 | 0.00 | 0.00 | 43 | 945.3 |
| 20260906174251 | 35 | 15 | 11.3 | 19.3 | 0.00 | 0.00 | 0.00 | 43 | 945.3 |
| 20260906174152 | 35 | 67 | 11.3 | 19.3 | 0.00 | 0.00 | 0.00 | 43 | 945.3 |
| 20260906174045 | 35 | 81 | 11.3 | 19.3 | 0.00 | 0.00 | 0.00 | 43 | 945.4 |
| 20260906173945 | 35 | 107 | 9.7 | 19.3 | 0.00 | 0.00 | 0.00 | 42 | 945.4 |
| 20260906173845 | 35 | 98 | 9.7 | 19.3 | 0.00 | 0.00 | 0.00 | 42 | 945.4 |
| 20260906173746 | 35 | 107 | 9.7 | 19.3 | 0.00 | 0.00 | 0.00 | 46 | 945.4 |
| 20260906173646 | 35 | 92 | 8.0 | 19.3 | 0.00 | 0.00 | 0.00 | 43 | 945.4 |
| 20260906173541 | 35 | 44 | 8.0 | 19.3 | 0.00 | 0.00 | 0.00 | 47 | 945.4 |
| 20260906173439 | 35 | 51 | 6.4 | 19.3 | 0.00 | 0.00 | 0.00 | 48 | 945.5 |
| 20260906173339 | 35 | 0 | 6.4 | 16.1 | 0.00 | 0.00 | 0.00 | 44 | 945.4 |
| 20260906173239 | 35 | 85 | 6.4 | 14.5 | 0.00 | 0.00 | 0.00 | 44 | 945.5 |
| 20260906173139 | 35 | 66 | 4.8 | 14.5 | 0.00 | 0.00 | 0.00 | 43 | 945.5 |
| 20260906173033 | 35 | 72 | 6.4 | 14.5 | 0.00 | 0.00 | 0.00 | 46 | 945.5 |
| 20260906172933 | 35 | 68 | 6.4 | 16.1 | 0.00 | 0.00 | 0.00 | 46 | 945.5 |
| 20260906172833 | 35 | 61 | 6.4 | 17.7 | 0.00 | 0.00 | 0.00 | 47 | 945.5 |
| 20260906172733 | 35 | 355 | 6.4 | 17.7 | 0.00 | 0.00 | 0.00 | 44 | 945.5 |
| 20260906172633 | 34 | 67 | 8.0 | 17.7 | 0.00 | 0.00 | 0.00 | 45 | 945.5 |
| 20260906172528 | 34 | 41 | 8.0 | 19.3 | 0.00 | 0.00 | 0.00 | 44 | 945.5 |
| 20260906172428 | 34 | 130 | 9.7 | 19.3 | 0.00 | 0.00 | 0.00 | 45 | 945.5 |
| 20260906172328 | 34 | 148 | 9.7 | 19.3 | 0.00 | 0.00 | 0.00 | 44 | 945.5 |
| 20260906172228 | 34 | 127 | 9.7 | 19.3 | 0.00 | 0.00 | 0.00 | 45 | 945.5 |
| 20260906172127 | 34 | 116 | 9.7 | 19.3 | 0.00 | 0.00 | 0.00 | 46 | 945.6 |
| 20260906172022 | 34 | 131 | 9.7 | 19.3 | 0.00 | 0.00 | 0.00 | 45 | 945.6 |
| 20260906171922 | 34 | 93 | 9.7 | 19.3 | 0.00 | 0.00 | 0.00 | 45 | 945.6 |
| 20260906171822 | 34 | 119 | 9.7 | 19.3 | 0.00 | 0.00 | 0.00 | 45 | 945.6 |
| 20260906171722 | 34 | 97 | 9.7 | 19.3 | 0.00 | 0.00 | 0.00 | 48 | 945.6 |
| 20260906171621 | 34 | 71 | 9.7 | 19.3 | 0.00 | 0.00 | 0.00 | 46 | 945.6 |
| 20260906171516 | 34 | 56 | 9.7 | 16.1 | 0.00 | 0.00 | 0.00 | 46 | 945.6 |
| 20260906171416 | 34 | 35 | 9.7 | 19.3 | 0.00 | 0.00 | 0.00 | 46 | 945.6 |
| 20260906171316 | 34 | 49 | 11.3 | 22.5 | 0.00 | 0.00 | 0.00 | 44 | 945.6 |
| 20260906171216 | 34 | 44 | 11.3 | 22.5 | 0.00 | 0.00 | 0.00 | 45 | 945.6 |
| 20260906171115 | 34 | 55 | 11.3 | 22.5 | 0.00 | 0.00 | 0.00 | 46 | 945.6 |
| 20260906171009 | 34 | 59 | 11.3 | 22.5 | 0.00 | 0.00 | 0.00 | 45 | 945.6 |
| 20260906170910 | 34 | 44 | 11.3 | 22.5 | 0.00 | 0.00 | 0.00 | 47 | 945.7 |
| 20260906170810 | 34 | 78 | 12.9 | 22.5 | 0.00 | 0.00 | 0.00 | 46 | 945.7 |
| 20260906170710 | 34 | 86 | 12.9 | 22.5 | 0.00 | 0.00 | 0.00 | 46 | 945.7 |
| 20260906170609 | 34 | 117 | 11.3 | 22.5 | 0.00 | 0.00 | 0.00 | 44 | 945.7 |
| 20260906170503 | 34 | 98 | 11.3 | 22.5 | 0.00 | 0.00 | 0.00 | 46 | 945.6 |
| 20260906170403 | 34 | 113 | 9.7 | 22.5 | 0.00 | 0.00 | 0.00 | 46 | 945.7 |
| 20260906170304 | 34 | 101 | 8.0 | 19.3 | 0.00 | 0.00 | 0.00 | 45 | 945.7 |
| 20260906170204 | 34 | 123 | 8.0 | 19.3 | 0.00 | 0.00 | 0.00 | 44 | 945.7 |
| 20260906170103 | 34 | 107 | 8.0 | 19.3 | 0.00 | 0.00 | 0.00 | 45 | 945.7 |
| 20260906165957 | 34 | 119 | 8.0 | 24.1 | 0.00 | 0.00 | 0.00 | 47 | 945.7 |
| 20260906165858 | 33 | 148 | 8.0 | 24.1 | 0.00 | 0.00 | 0.00 | 45 | 945.7 |
| 20260906165758 | 33 | 125 | 8.0 | 24.1 | 0.00 | 0.00 | 0.00 | 45 | 945.7 |
| 20260906165658 | 34 | 100 | 8.0 | 24.1 | 0.00 | 0.00 | 0.00 | 45 | 945.8 |
| 20260906165558 | 34 | 130 | 9.7 | 24.1 | 0.00 | 0.00 | 0.00 | 44 | 945.8 |
| 20260906165451 | 34 | 254 | 9.7 | 24.1 | 0.00 | 0.00 | 0.00 | 47 | 945.7 |
| 20260906165351 | 34 | 140 | 11.3 | 24.1 | 0.00 | 0.00 | 0.00 | 47 | 945.8 |
| 20260906165252 | 33 | 106 | 11.3 | 24.1 | 0.00 | 0.00 | 0.00 | 45 | 945.9 |
| 20260906165152 | 33 | 127 | 12.9 | 24.1 | 0.00 | 0.00 | 0.00 | 45 | 945.8 |
| 20260906165052 | 33 | 109 | 12.9 | 25.7 | 0.00 | 0.00 | 0.00 | 45 | 945.9 |
| 20260906164945 | 33 | 130 | 12.9 | 25.7 | 0.00 | 0.00 | 0.00 | 44 | 945.8 |
| 20260906164846 | 33 | 137 | 12.9 | 25.7 | 0.00 | 0.00 | 0.00 | 45 | 945.8 |
| 20260906164746 | 33 | 80 | 12.9 | 25.7 | 0.00 | 0.00 | 0.00 | 46 | 945.9 |
| 20260906164646 | 33 | 108 | 12.9 | 25.7 | 0.00 | 0.00 | 0.00 | 46 | 945.9 |
| 20260906164546 | 33 | 124 | 12.9 | 25.7 | 0.00 | 0.00 | 0.00 | 44 | 945.9 |
| 20260906164439 | 33 | 155 | 12.9 | 25.7 | 0.00 | 0.00 | 0.00 | 46 | 945.9 |
| 20260906164339 | 33 | 126 | 12.9 | 25.7 | 0.00 | 0.00 | 0.00 | 46 | 945.9 |
| 20260906164239 | 33 | 111 | 12.9 | 25.7 | 0.00 | 0.00 | 0.00 | 46 | 945.9 |
| 20260906164139 | 33 | 103 | 12.9 | 25.7 | 0.00 | 0.00 | 0.00 | 45 | 945.9 |
| 20260906164039 | 33 | 94 | 12.9 | 22.5 | 0.00 | 0.00 | 0.00 | 46 | 945.9 |
| 20260906163933 | 33 | 67 | 12.9 | 22.5 | 0.00 | 0.00 | 0.00 | 47 | 945.9 |
| 20260906163833 | 33 | 75 | 12.9 | 22.5 | 0.00 | 0.00 | 0.00 | 49 | 945.9 |
| 20260906163733 | 33 | 163 | 12.9 | 22.5 | 0.00 | 0.00 | 0.00 | 49 | 945.9 |
| 20260906163633 | 33 | 63 | 12.9 | 22.5 | 0.00 | 0.00 | 0.00 | 47 | 945.9 |
| 20260906163533 | 33 | 82 | 12.9 | 22.5 | 0.00 | 0.00 | 0.00 | 46 | 945.9 |
| 20260906163429 | 33 | 99 | 12.9 | 22.5 | 0.00 | 0.00 | 0.00 | 46 | 945.9 |
| 20260906163327 | 33 | 95 | 11.3 | 22.5 | 0.00 | 0.00 | 0.00 | 46 | 945.9 |
| 20260906163227 | 33 | 84 | 9.7 | 22.5 | 0.00 | 0.00 | 0.00 | 47 | 945.9 |
| 20260906163127 | 33 | 107 | 9.7 | 19.3 | 0.00 | 0.00 | 0.00 | 47 | 945.9 |
| 20260906163027 | 33 | 81 | 8.0 | 19.3 | 0.00 | 0.00 | 0.00 | 47 | 945.8 |
| 20260906162923 | 33 | 48 | 8.0 | 16.1 | 0.00 | 0.00 | 0.00 | 47 | 945.9 |
| 20260906162824 | 33 | 38 | 6.4 | 16.1 | 0.00 | 0.00 | 0.00 | 48 | 945.8 |
| 20260906162724 | 33 | 59 | 6.4 | 16.1 | 0.00 | 0.00 | 0.00 | 47 | 945.9 |
| 20260906162624 | 33 | 46 | 6.4 | 16.1 | 0.00 | 0.00 | 0.00 | 49 | 945.9 |
| 20260906162521 | 33 | 43 | 6.4 | 16.1 | 0.00 | 0.00 | 0.00 | 48 | 945.9 |
| 20260906162418 | 33 | 30 | 6.4 | 16.1 | 0.00 | 0.00 | 0.00 | 46 | 945.9 |
| 20260906162316 | 33 | 15 | 6.4 | 16.1 | 0.00 | 0.00 | 0.00 | 46 | 945.9 |
| 20260906162216 | 33 | 63 | 6.4 | 16.1 | 0.00 | 0.00 | 0.00 | 48 | 945.9 |
| 20260906162116 | 33 | 70 | 6.4 | 16.1 | 0.00 | 0.00 | 0.00 | 46 | 946.0 |
| 20260906162015 | 33 | 5 | 6.4 | 16.1 | 0.00 | 0.00 | 0.00 | 46 | 945.9 |
| 20260906161912 | 33 | 109 | 6.4 | 16.1 | 0.00 | 0.00 | 0.00 | 46 | 945.9 |
| 20260906161810 | 33 | 127 | 4.8 | 16.1 | 0.00 | 0.00 | 0.00 | 47 | 945.9 |
| 20260906161710 | 33 | 120 | 4.8 | 16.1 | 0.00 | 0.00 | 0.00 | 46 | 945.9 |
| 20260906161610 | 33 | 132 | 4.8 | 16.1 | 0.00 | 0.00 | 0.00 | 46 | 945.9 |
| 20260906161509 | 33 | 146 | 4.8 | 16.1 | 0.00 | 0.00 | 0.00 | 46 | 945.9 |
| 20260906161403 | 33 | 121 | 3.2 | 11.3 | 0.00 | 0.00 | 0.00 | 48 | 946.0 |
| 20260906161304 | 33 | 71 | 4.8 | 12.9 | 0.00 | 0.00 | 0.00 | 46 | 946.0 |
| 20260906161204 | 33 | 131 | 4.8 | 12.9 | 0.00 | 0.00 | 0.00 | 47 | 946.0 |
| 20260906161104 | 33 | 149 | 4.8 | 12.9 | 0.00 | 0.00 | 0.00 | 49 | 946.0 |
| 20260906161003 | 33 | 318 | 4.8 | 12.9 | 0.00 | 0.00 | 0.00 | 50 | 945.9 |
| 20260906160857 | 33 | 318 | 6.4 | 12.9 | 0.00 | 0.00 | 0.00 | 49 | 945.9 |
| 20260906160757 | 33 | 42 | 6.4 | 12.9 | 0.00 | 0.00 | 0.00 | 48 | 945.9 |
| 20260906160658 | 33 | 58 | 6.4 | 12.9 | 0.00 | 0.00 | 0.00 | 48 | 945.9 |
| 20260906160558 | 33 | 46 | 6.4 | 12.9 | 0.00 | 0.00 | 0.00 | 48 | 945.9 |
| 20260906160457 | 33 | 44 | 4.8 | 12.9 | 0.00 | 0.00 | 0.00 | 48 | 945.9 |
| 20260906160353 | 33 | 65 | 4.8 | 12.9 | 0.00 | 0.00 | 0.00 | 49 | 945.9 |
| 20260906160253 | 33 | 125 | 4.8 | 11.3 | 0.00 | 0.00 | 0.00 | 48 | 945.9 |
| 20260906160154 | 33 | 170 | 4.8 | 11.3 | 0.00 | 0.00 | 0.00 | 48 | 945.9 |
| 20260906160054 | 33 | 148 | 4.8 | 11.3 | 0.00 | 0.00 | 0.00 | 47 | 945.9 |
| 20260906155952 | 33 | 166 | 3.2 | 11.3 | 0.00 | 0.00 | 0.00 | 48 | 945.9 |
| 20260906155845 | 33 | 162 | 3.2 | 8.0 | 0.00 | 0.00 | 0.00 | 49 | 945.9 |
| 20260906155745 | 33 | 126 | 3.2 | 8.0 | 0.00 | 0.00 | 0.00 | 50 | 945.9 |
| 20260906155645 | 33 | 130 | 3.2 | 8.0 | 0.00 | 0.00 | 0.00 | 50 | 945.9 |
| 20260906155545 | 33 | 144 | 3.2 | 6.4 | 0.00 | 0.00 | 0.00 | 52 | 945.9 |
| 20260906155445 | 32 | 182 | 3.2 | 6.4 | 0.00 | 0.00 | 0.00 | 51 | 945.9 |
| 20260906155341 | 32 | 143 | 3.2 | 6.4 | 0.00 | 0.00 | 0.00 | 51 | 945.9 |
| 20260906155241 | 32 | 166 | 3.2 | 6.4 | 0.00 | 0.00 | 0.00 | 53 | 945.8 |
| 20260906155141 | 32 | 198 | 3.2 | 6.4 | 0.00 | 0.00 | 0.00 | 52 | 945.8 |
| 20260906155041 | 32 | 181 | 3.2 | 8.0 | 0.00 | 0.00 | 0.00 | 51 | 945.8 |
| 20260906154939 | 32 | 122 | 3.2 | 8.0 | 0.00 | 0.00 | 0.00 | 52 | 945.8 |
| 20260906154901 | 32 | 153 | 3.2 | 8.0 | 0.00 | 0.00 | 0.00 | 51 | 945.8 |
| 20260906154733 | 32 | 165 | 4.8 | 8.0 | 0.00 | 0.00 | 0.00 | 52 | 945.9 |
| 20260906154634 | 32 | 150 | 4.8 | 8.0 | 0.00 | 0.00 | 0.00 | 51 | 945.8 |
| 20260906154533 | 32 | 175 | 4.8 | 8.0 | 0.00 | 0.00 | 0.00 | 54 | 945.8 |
| 20260906154434 | 32 | 118 | 4.8 | 8.0 | 0.00 | 0.00 | 0.00 | 52 | 945.9 |
| 20260906154329 | 32 | 164 | 4.8 | 8.0 | 0.00 | 0.00 | 0.00 | 53 | 945.9 |
| 20260906154230 | 32 | 202 | 3.2 | 8.0 | 0.00 | 0.00 | 0.00 | 54 | 945.9 |
| 20260906154130 | 32 | 169 | 3.2 | 8.0 | 0.00 | 0.00 | 0.00 | 54 | 945.9 |
| 20260906154030 | 32 | 148 | 3.2 | 8.0 | 0.00 | 0.00 | 0.00 | 54 | 945.8 |
| 20260906153928 | 32 | 167 | 3.2 | 8.0 | 0.00 | 0.00 | 0.00 | 54 | 945.9 |
| 20260906153821 | 32 | 137 | 3.2 | 6.4 | 0.00 | 0.00 | 0.00 | 54 | 945.8 |
| 20260906153721 | 32 | 116 | 3.2 | 6.4 | 0.00 | 0.00 | 0.00 | 54 | 945.8 |
| 20260906153622 | 32 | 79 | 3.2 | 6.4 | 0.00 | 0.00 | 0.00 | 56 | 945.8 |
| 20260906153521 | 32 | 86 | 1.6 | 6.4 | 0.00 | 0.00 | 0.00 | 54 | 945.8 |
| 20260906153422 | 32 | 107 | 1.6 | 6.4 | 0.00 | 0.00 | 0.00 | 55 | 945.8 |
| 20260906153320 | 32 | 67 | 1.6 | 6.4 | 0.00 | 0.00 | 0.00 | 56 | 945.9 |
| 20260906153219 | 32 | 217 | 1.6 | 6.4 | 0.00 | 0.00 | 0.00 | 54 | 945.9 |
| 20260906153117 | 32 | 217 | 1.6 | 6.4 | 0.00 | 0.00 | 0.00 | 56 | 945.8 |
| 20260906153018 | 32 | 221 | 3.2 | 6.4 | 0.00 | 0.00 | 0.00 | 54 | 945.8 |
| 20260906152915 | 32 | 233 | 3.2 | 6.4 | 0.00 | 0.00 | 0.00 | 56 | 945.8 |
| 20260906152813 | 32 | 242 | 3.2 | 6.4 | 0.00 | 0.00 | 0.00 | 55 | 945.8 |
| 20260906152714 | 32 | 238 | 3.2 | 6.4 | 0.00 | 0.00 | 0.00 | 56 | 945.8 |
| 20260906152614 | 32 | 279 | 3.2 | 6.4 | 0.00 | 0.00 | 0.00 | 54 | 945.8 |
| 20260906152511 | 32 | 270 | 3.2 | 6.4 | 0.00 | 0.00 | 0.00 | 55 | 945.8 |
| 20260906152409 | 32 | 263 | 1.6 | 6.4 | 0.00 | 0.00 | 0.00 | 55 | 945.7 |
| 20260906152306 | 32 | 264 | 1.6 | 6.4 | 0.00 | 0.00 | 0.00 | 55 | 945.8 |
| 20260906152203 | 32 | 259 | 1.6 | 6.4 | 0.00 | 0.00 | 0.00 | 55 | 945.8 |
| 20260906152103 | 32 | 355 | 1.6 | 6.4 | 0.00 | 0.00 | 0.00 | 56 | 945.8 |
| 20260906152003 | 32 | 327 | 3.2 | 6.4 | 0.00 | 0.00 | 0.00 | 57 | 945.8 |
| 20260906151903 | 31 | 279 | 3.2 | 6.4 | 0.00 | 0.00 | 0.00 | 57 | 945.8 |
| 20260906151826 | 31 | 267 | 3.2 | 6.4 | 0.00 | 0.00 | 0.00 | 57 | 945.7 |
| 20260906151658 | 31 | 298 | 3.2 | 6.4 | 0.00 | 0.00 | 0.00 | 58 | 945.8 |
| 20260906151558 | 31 | 329 | 3.2 | 6.4 | 0.00 | 0.00 | 0.00 | 56 | 945.7 |
| 20260906151458 | 31 | 26 | 3.2 | 6.4 | 0.00 | 0.00 | 0.00 | 58 | 945.7 |
| 20260906151357 | 31 | 26 | 3.2 | 6.4 | 0.00 | 0.00 | 0.00 | 58 | 945.7 |
| 20260906151252 | 31 | 5 | 3.2 | 6.4 | 0.00 | 0.00 | 0.00 | 59 | 945.7 |
| 20260906151152 | 31 | 299 | 3.2 | 6.4 | 0.00 | 0.00 | 0.00 | 59 | 945.7 |
| 20260906151052 | 31 | 306 | 1.6 | 6.4 | 0.00 | 0.00 | 0.00 | 58 | 945.7 |
| 20260906150952 | 31 | 298 | 1.6 | 6.4 | 0.00 | 0.00 | 0.00 | 57 | 945.6 |
| 20260906150851 | 31 | 267 | 1.6 | 6.4 | 0.00 | 0.00 | 0.00 | 58 | 945.7 |
| 20260906150748 | 31 | 254 | 1.6 | 4.8 | 0.00 | 0.00 | 0.00 | 60 | 945.7 |
| 20260906150647 | 31 | 319 | 1.6 | 4.8 | 0.00 | 0.00 | 0.00 | 60 | 945.7 |
| 20260906150547 | 31 | 306 | 1.6 | 4.8 | 0.00 | 0.00 | 0.00 | 60 | 945.7 |
| 20260906150448 | 31 | 294 | 1.6 | 4.8 | 0.00 | 0.00 | 0.00 | 58 | 945.7 |
| 20260906150345 | 31 | 302 | 1.6 | 8.0 | 0.00 | 0.00 | 0.00 | 58 | 945.7 |
| 20260906150242 | 31 | 223 | 1.6 | 8.0 | 0.00 | 0.00 | 0.00 | 59 | 945.7 |
| 20260906150140 | 31 | 223 | 3.2 | 8.0 | 0.00 | 0.00 | 0.00 | 60 | 945.6 |
| 20260906150040 | 30 | 245 | 3.2 | 8.0 | 0.00 | 0.00 | 0.00 | 59 | 945.7 |
| 20260906145940 | 30 | 208 | 3.2 | 8.0 | 0.00 | 0.00 | 0.00 | 59 | 945.7 |
| 20260906145839 | 30 | 241 | 3.2 | 8.0 | 0.00 | 0.00 | 0.00 | 59 | 945.7 |
| 20260906145734 | 30 | 241 | 3.2 | 8.0 | 0.00 | 0.00 | 0.00 | 59 | 945.7 |
| 20260906145634 | 30 | 220 | 3.2 | 8.0 | 0.00 | 0.00 | 0.00 | 59 | 945.6 |
| 20260906145534 | 30 | 235 | 3.2 | 8.0 | 0.00 | 0.00 | 0.00 | 60 | 945.7 |
| 20260906145433 | 30 | 237 | 3.2 | 8.0 | 0.00 | 0.00 | 0.00 | 60 | 945.7 |
| 20260906145333 | 30 | 5 | 3.2 | 8.0 | 0.00 | 0.00 | 0.00 | 60 | 945.7 |
| 20260906145229 | 30 | 348 | 3.2 | 8.0 | 0.00 | 0.00 | 0.00 | 60 | 945.7 |
| 20260906145129 | 30 | 288 | 3.2 | 8.0 | 0.00 | 0.00 | 0.00 | 60 | 945.7 |
| 20260906145029 | 30 | 297 | 3.2 | 8.0 | 0.00 | 0.00 | 0.00 | 61 | 945.6 |
| 20260906144929 | 30 | 286 | 3.2 | 8.0 | 0.00 | 0.00 | 0.00 | 61 | 945.7 |
| 20260906144827 | 30 | 296 | 3.2 | 8.0 | 0.00 | 0.00 | 0.00 | 61 | 945.7 |
| 20260906144723 | 30 | 294 | 3.2 | 8.0 | 0.00 | 0.00 | 0.00 | 61 | 945.7 |
| 20260906144621 | 30 | 237 | 1.6 | 6.4 | 0.00 | 0.00 | 0.00 | 61 | 945.6 |
| 20260906144521 | 30 | 30 | 1.6 | 6.4 | 0.00 | 0.00 | 0.00 | 61 | 945.7 |
| 20260906144421 | 30 | 30 | 1.6 | 6.4 | 0.00 | 0.00 | 0.00 | 61 | 945.7 |
| 20260906144321 | 30 | 95 | 1.6 | 6.4 | 0.00 | 0.00 | 0.00 | 61 | 945.7 |
| 20260906144248 | 30 | 287 | 1.6 | 6.4 | 0.00 | 0.00 | 0.00 | 60 | 945.6 |
| 20260906144117 | 30 | 263 | 1.6 | 6.4 | 0.00 | 0.00 | 0.00 | 62 | 945.6 |
| 20260906144018 | 30 | 277 | 1.6 | 6.4 | 0.00 | 0.00 | 0.00 | 63 | 945.6 |
| 20260906143917 | 30 | 308 | 1.6 | 4.8 | 0.00 | 0.00 | 0.00 | 63 | 945.7 |
| 20260906143815 | 30 | 305 | 1.6 | 4.8 | 0.00 | 0.00 | 0.00 | 63 | 945.7 |
| 20260906143712 | 29 | 313 | 1.6 | 4.8 | 0.00 | 0.00 | 0.00 | 65 | 945.7 |
| 20260906143609 | 29 | 313 | 1.6 | 4.8 | 0.00 | 0.00 | 0.00 | 65 | 945.7 |
| 20260906143510 | 29 | 313 | 1.6 | 4.8 | 0.00 | 0.00 | 0.00 | 64 | 945.7 |
| 20260906143412 | 29 | 313 | 1.6 | 6.4 | 0.00 | 0.00 | 0.00 | 66 | 945.7 |
| 20260906143309 | 29 | 300 | 1.6 | 6.4 | 0.00 | 0.00 | 0.00 | 64 | 945.7 |
| 20260906143247 | 28 | 311 | 1.6 | 6.4 | 0.00 | 0.00 | 0.00 | 65 | 945.7 |
| 20260906143107 | 28 | 281 | 1.6 | 8.0 | 0.00 | 0.00 | 0.00 | 65 | 945.7 |
| 20260906143005 | 28 | 289 | 3.2 | 8.0 | 0.00 | 0.00 | 0.00 | 65 | 945.7 |
| 20260906142905 | 28 | 289 | 3.2 | 9.7 | 0.00 | 0.00 | 0.00 | 64 | 945.7 |
| 20260906142803 | 28 | 236 | 3.2 | 9.7 | 0.00 | 0.00 | 0.00 | 64 | 945.8 |
| 20260906142557 | 28 | 217 | 3.2 | 9.7 | 0.00 | 0.00 | 0.00 | 64 | 945.8 |
| 20260906142457 | 28 | 220 | 3.2 | 9.7 | 0.00 | 0.00 | 0.00 | 64 | 945.7 |
| 20260906142357 | 28 | 206 | 4.8 | 9.7 | 0.00 | 0.00 | 0.00 | 64 | 945.7 |
| 20260906142257 | 28 | 257 | 4.8 | 9.7 | 0.00 | 0.00 | 0.00 | 64 | 945.8 |
| 20260906142151 | 28 | 281 | 4.8 | 9.7 | 0.00 | 0.00 | 0.00 | 65 | 945.8 |
| 20260906142051 | 28 | 234 | 4.8 | 9.7 | 0.00 | 0.00 | 0.00 | 66 | 945.8 |
| 20260906141951 | 28 | 189 | 3.2 | 9.7 | 0.00 | 0.00 | 0.00 | 65 | 945.8 |
| 20260906141851 | 28 | 208 | 3.2 | 8.0 | 0.00 | 0.00 | 0.00 | 65 | 945.8 |
| 20260906141751 | 28 | 233 | 3.2 | 8.0 | 0.00 | 0.00 | 0.00 | 65 | 945.8 |
| 20260906141648 | 28 | 198 | 3.2 | 8.0 | 0.00 | 0.00 | 0.00 | 66 | 945.8 |
| 20260906141547 | 28 | 202 | 3.2 | 8.0 | 0.00 | 0.00 | 0.00 | 65 | 945.8 |
| 20260906141447 | 28 | 203 | 3.2 | 8.0 | 0.00 | 0.00 | 0.00 | 66 | 945.8 |
| 20260906141347 | 27 | 211 | 3.2 | 8.0 | 0.00 | 0.00 | 0.00 | 66 | 945.8 |
| 20260906141245 | 27 | 209 | 3.2 | 8.0 | 0.00 | 0.00 | 0.00 | 66 | 945.8 |
| 20260906141145 | 27 | 150 | 3.2 | 8.0 | 0.00 | 0.00 | 0.00 | 66 | 945.7 |
| 20260906141045 | 27 | 167 | 3.2 | 8.0 | 0.00 | 0.00 | 0.00 | 66 | 945.7 |
| 20260906140945 | 27 | 209 | 3.2 | 8.0 | 0.00 | 0.00 | 0.00 | 66 | 945.7 |
| 20260906140845 | 27 | 190 | 3.2 | 8.0 | 0.00 | 0.00 | 0.00 | 66 | 945.7 |
| 20260906140745 | 27 | 196 | 3.2 | 8.0 | 0.00 | 0.00 | 0.00 | 66 | 945.7 |
| 20260906140645 | 27 | 192 | 3.2 | 8.0 | 0.00 | 0.00 | 0.00 | 66 | 945.7 |
| 20260906140545 | 27 | 205 | 3.2 | 6.4 | 0.00 | 0.00 | 0.00 | 66 | 945.7 |
| 20260906140445 | 27 | 202 | 3.2 | 6.4 | 0.00 | 0.00 | 0.00 | 67 | 945.7 |
| 20260906140343 | 27 | 193 | 3.2 | 6.4 | 0.00 | 0.00 | 0.00 | 67 | 945.7 |
| 20260906140243 | 27 | 221 | 1.6 | 6.4 | 0.00 | 0.00 | 0.00 | 67 | 945.7 |
| 20260906140039 | 27 | 192 | 1.6 | 6.4 | 0.00 | 0.00 | 0.00 | 69 | 945.7 |
| 20260906135939 | 26 | 192 | 1.6 | 6.4 | 0.00 | 0.00 | 0.00 | 67 | 945.7 |
| 20260906135839 | 26 | 196 | 1.6 | 4.8 | 0.00 | 0.00 | 0.00 | 68 | 945.6 |
| 20260906135739 | 26 | 167 | 1.6 | 4.8 | 0.00 | 0.00 | 0.00 | 68 | 945.7 |
| 20260906135540 | 26 | 199 | 0.0 | 3.2 | 0.00 | 0.00 | 0.00 | 68 | 945.6 |
| 20260906135435 | 26 | 182 | 0.0 | 3.2 | 0.00 | 0.00 | 0.00 | 68 | 945.7 |
| 20260906135333 | 26 | 182 | 0.0 | 3.2 | 0.00 | 0.00 | 0.00 | 69 | 945.6 |
| 20260906135233 | 26 | 238 | 0.0 | 3.2 | 0.00 | 0.00 | 0.00 | 69 | 945.6 |
| 20260906135131 | 26 | 238 | 0.0 | 3.2 | 0.00 | 0.00 | 0.00 | 70 | 945.6 |
| 20260906135032 | 26 | 238 | 0.0 | 3.2 | 0.00 | 0.00 | 0.00 | 70 | 945.6 |
| 20260906134927 | 26 | 238 | 0.0 | 3.2 | 0.00 | 0.00 | 0.00 | 69 | 945.6 |
| 20260906134827 | 26 | 238 | 0.0 | 3.2 | 0.00 | 0.00 | 0.00 | 70 | 945.7 |
| 20260906134727 | 26 | 150 | 0.0 | 3.2 | 0.00 | 0.00 | 0.00 | 71 | 945.6 |
| 20260906134628 | 26 | 150 | 0.0 | 3.2 | 0.00 | 0.00 | 0.00 | 70 | 945.6 |
| 20260906134527 | 26 | 153 | 0.0 | 3.2 | 0.00 | 0.00 | 0.00 | 71 | 945.6 |
| 20260906134427 | 26 | 153 | 0.0 | 3.2 | 0.00 | 0.00 | 0.00 | 71 | 945.7 |
| 20260906134327 | 25 | 206 | 0.0 | 0.0 | 0.00 | 0.00 | 0.00 | 71 | 945.6 |
| 20260906134227 | 25 | 206 | 0.0 | 0.0 | 0.00 | 0.00 | 0.00 | 71 | 945.6 |
| 20260906134127 | 25 | 209 | 0.0 | 0.0 | 0.00 | 0.00 | 0.00 | 71 | 945.6 |
| 20260906134027 | 25 | 155 | 0.0 | 0.0 | 0.00 | 0.00 | 0.00 | 72 | 945.6 |
| 20260906133927 | 25 | 186 | 0.0 | 0.0 | 0.00 | 0.00 | 0.00 | 72 | 945.6 |
| 20260906133827 | 25 | 196 | 0.0 | 0.0 | 0.00 | 0.00 | 0.00 | 73 | 945.7 |
| 20260906133727 | 25 | 196 | 0.0 | 0.0 | 0.00 | 0.00 | 0.00 | 74 | 945.6 |
| 20260906133627 | 25 | 97 | 0.0 | 0.0 | 0.00 | 0.00 | 0.00 | 74 | 945.7 |
| 20260906133527 | 25 | 97 | 0.0 | 0.0 | 0.00 | 0.00 | 0.00 | 75 | 945.6 |
| 20260906133428 | 24 | 97 | 0.0 | 0.0 | 0.00 | 0.00 | 0.00 | 74 | 945.6 |
| 20260906133328 | 24 | 97 | 0.0 | 0.0 | 0.00 | 0.00 | 0.00 | 75 | 945.6 |
| 20260906133228 | 24 | 97 | 0.0 | 0.0 | 0.00 | 0.00 | 0.00 | 75 | 945.6 |
| 20260906133127 | 24 | 97 | 0.0 | 0.0 | 0.00 | 0.00 | 0.00 | 75 | 945.6 |
| 20260906133024 | 24 | 97 | 0.0 | 0.0 | 0.00 | 0.00 | 0.00 | 76 | 945.6 |
| 20260906132924 | 24 | 97 | 0.0 | 0.0 | 0.00 | 0.00 | 0.00 | 75 | 945.6 |
| 20260906132823 | 23 | 97 | 0.0 | 0.0 | 0.00 | 0.00 | 0.00 | 76 | 945.6 |
| 20260906132724 | 23 | 97 | 0.0 | 0.0 | 0.00 | 0.00 | 0.00 | 77 | 945.7 |
| 20260906132623 | 23 | 97 | 0.0 | 0.0 | 0.00 | 0.00 | 0.00 | 77 | 945.7 |
| 20260906132523 | 23 | 97 | 0.0 | 0.0 | 0.00 | 0.00 | 0.00 | 77 | 945.6 |
| 20260906132423 | 23 | 97 | 0.0 | 0.0 | 0.00 | 0.00 | 0.00 | 78 | 945.7 |
| 20260906132323 | 23 | 97 | 0.0 | 0.0 | 0.00 | 0.00 | 0.00 | 78 | 945.7 |
| 20260906132223 | 23 | 97 | 0.0 | 0.0 | 0.00 | 0.00 | 0.00 | 79 | 945.7 |
| 20260906132123 | 23 | 97 | 0.0 | 0.0 | 0.00 | 0.00 | 0.00 | 80 | 945.7 |
| 20260906132023 | 23 | 97 | 0.0 | 0.0 | 0.00 | 0.00 | 0.00 | 80 | 945.6 |
| 20260906131921 | 23 | 97 | 0.0 | 0.0 | 0.00 | 0.00 | 0.00 | 80 | 945.6 |
| 20260906131817 | 22 | 97 | 0.0 | 0.0 | 0.00 | 0.00 | 0.00 | 80 | 945.6 |
| 20260906131717 | 22 | 97 | 0.0 | 0.0 | 0.00 | 0.00 | 0.00 | 81 | 945.6 |
| 20260906131617 | 22 | 97 | 0.0 | 0.0 | 0.00 | 0.00 | 0.00 | 81 | 945.6 |
| 20260906131517 | 22 | 97 | 0.0 | 0.0 | 0.00 | 0.00 | 0.00 | 81 | 945.5 |
| 20260906131417 | 22 | 97 | 0.0 | 0.0 | 0.00 | 0.00 | 0.00 | 81 | 945.5 |
| 20260906131317 | 22 | 97 | 0.0 | 0.0 | 0.00 | 0.00 | 0.00 | 81 | 945.5 |
| 20260906131241 | 22 | 97 | 0.0 | 0.0 | 0.00 | 0.00 | 0.00 | 81 | 945.5 |
| 20260906131117 | 22 | 97 | 0.0 | 0.0 | 0.00 | 0.00 | 0.00 | 81 | 945.6 |
| 20260906131018 | 22 | 97 | 0.0 | 0.0 | 0.00 | 0.00 | 0.00 | 82 | 945.5 |
| 20260906130917 | 22 | 97 | 0.0 | 0.0 | 0.00 | 0.00 | 0.00 | 81 | 945.5 |
| 20260906130817 | 22 | 97 | 0.0 | 0.0 | 0.00 | 0.00 | 0.00 | 82 | 945.5 |
| 20260906130741 | 22 | 97 | 0.0 | 0.0 | 0.00 | 0.00 | 0.00 | 82 | 945.5 |
| 20260906130617 | 22 | 97 | 0.0 | 0.0 | 0.00 | 0.00 | 0.00 | 82 | 945.5 |
| 20260906130517 | 21 | 97 | 0.0 | 0.0 | 0.00 | 0.00 | 0.00 | 82 | 945.5 |
| 20260906130417 | 21 | 97 | 0.0 | 0.0 | 0.00 | 0.00 | 0.00 | 82 | 945.5 |
| 20260906130318 | 21 | 97 | 0.0 | 0.0 | 0.00 | 0.00 | 0.00 | 82 | 945.4 |
| 20260906130217 | 21 | 97 | 0.0 | 0.0 | 0.00 | 0.00 | 0.00 | 83 | 945.5 |
| 20260906130117 | 21 | 97 | 0.0 | 0.0 | 0.00 | 0.00 | 0.00 | 83 | 945.5 |
| 20260906130018 | 21 | 97 | 0.0 | 0.0 | 0.00 | 0.00 | 0.00 | 82 | 945.4 |
| 20260906125914 | 21 | 97 | 0.0 | 0.0 | 0.00 | 0.00 | 0.00 | 83 | 945.4 |
| 20260906125814 | 21 | 97 | 0.0 | 0.0 | 0.00 | 0.00 | 0.00 | 83 | 945.4 |
| 20260906125714 | 21 | 97 | 0.0 | 0.0 | 0.00 | 0.00 | 0.00 | 84 | 945.3 |
| 20260906125613 | 21 | 97 | 0.0 | 0.0 | 0.00 | 0.00 | 0.00 | 84 | 945.3 |
| 20260906125513 | 21 | 97 | 0.0 | 0.0 | 0.00 | 0.00 | 0.00 | 84 | 945.3 |
| 20260906125413 | 21 | 97 | 0.0 | 0.0 | 0.00 | 0.00 | 0.00 | 84 | 945.3 |
| 20260906125313 | 21 | 97 | 0.0 | 0.0 | 0.00 | 0.00 | 0.00 | 84 | 945.3 |
| 20260906125213 | 21 | 97 | 0.0 | 0.0 | 0.00 | 0.00 | 0.00 | 84 | 945.3 |
| 20260906125113 | 21 | 97 | 0.0 | 0.0 | 0.00 | 0.00 | 0.00 | 84 | 945.2 |
| 20260906125013 | 21 | 97 | 0.0 | 0.0 | 0.00 | 0.00 | 0.00 | 84 | 945.2 |
| 20260906124913 | 21 | 97 | 0.0 | 0.0 | 0.00 | 0.00 | 0.00 | 83 | 945.2 |
| 20260906124813 | 21 | 97 | 0.0 | 0.0 | 0.00 | 0.00 | 0.00 | 83 | 945.2 |
| 20260906124713 | 21 | 97 | 0.0 | 0.0 | 0.00 | 0.00 | 0.00 | 83 | 945.2 |
| 20260906124613 | 21 | 97 | 0.0 | 0.0 | 0.00 | 0.00 | 0.00 | 83 | 945.1 |
| 20260906124513 | 21 | 97 | 0.0 | 0.0 | 0.00 | 0.00 | 0.00 | 83 | 945.1 |
| 20260906124413 | 21 | 97 | 0.0 | 0.0 | 0.00 | 0.00 | 0.00 | 83 | 945.1 |
| 20260906124313 | 21 | 97 | 0.0 | 0.0 | 0.00 | 0.00 | 0.00 | 83 | 945.1 |
| 20260906124214 | 21 | 97 | 0.0 | 0.0 | 0.00 | 0.00 | 0.00 | 84 | 945.1 |
| 20260906124114 | 21 | 97 | 0.0 | 0.0 | 0.00 | 0.00 | 0.00 | 83 | 945.1 |
| 20260906124010 | 21 | 97 | 0.0 | 0.0 | 0.00 | 0.00 | 0.00 | 83 | 945.1 |
| 20260906123909 | 21 | 97 | 0.0 | 0.0 | 0.00 | 0.00 | 0.00 | 83 | 945.1 |
| 20260906123809 | 21 | 97 | 0.0 | 0.0 | 0.00 | 0.00 | 0.00 | 83 | 945.0 |
| 20260906123709 | 21 | 97 | 0.0 | 0.0 | 0.00 | 0.00 | 0.00 | 84 | 945.1 |
| 20260906123609 | 21 | 97 | 0.0 | 0.0 | 0.00 | 0.00 | 0.00 | 83 | 945.0 |
| 20260906123509 | 21 | 97 | 0.0 | 0.0 | 0.00 | 0.00 | 0.00 | 83 | 945.0 |
| 20260906123409 | 21 | 97 | 0.0 | 0.0 | 0.00 | 0.00 | 0.00 | 83 | 945.0 |
| 20260906123309 | 21 | 97 | 0.0 | 0.0 | 0.00 | 0.00 | 0.00 | 83 | 945.0 |
| 20260906123209 | 21 | 97 | 0.0 | 0.0 | 0.00 | 0.00 | 0.00 | 83 | 945.0 |
| 20260906123109 | 21 | 97 | 0.0 | 0.0 | 0.00 | 0.00 | 0.00 | 83 | 944.9 |
| 20260906123009 | 21 | 97 | 0.0 | 0.0 | 0.00 | 0.00 | 0.00 | 83 | 944.9 |
| 20260906122909 | 21 | 97 | 0.0 | 0.0 | 0.00 | 0.00 | 0.00 | 83 | 944.9 |
| 20260906122809 | 21 | 97 | 0.0 | 0.0 | 0.00 | 0.00 | 0.00 | 83 | 944.8 |
| 20260906122709 | 21 | 97 | 0.0 | 0.0 | 0.00 | 0.00 | 0.00 | 83 | 944.9 |
| 20260906122609 | 21 | 97 | 0.0 | 0.0 | 0.00 | 0.00 | 0.00 | 83 | 944.8 |
| 20260906122510 | 21 | 97 | 0.0 | 0.0 | 0.00 | 0.00 | 0.00 | 83 | 944.8 |
| 20260906122409 | 21 | 97 | 0.0 | 0.0 | 0.00 | 0.00 | 0.00 | 83 | 944.8 |
| 20260906122309 | 20 | 97 | 0.0 | 0.0 | 0.00 | 0.00 | 0.00 | 83 | 944.8 |
| 20260906122210 | 20 | 97 | 0.0 | 0.0 | 0.00 | 0.00 | 0.00 | 83 | 944.8 |
| 20260906122105 | 20 | 97 | 0.0 | 0.0 | 0.00 | 0.00 | 0.00 | 83 | 944.8 |
| 20260906122005 | 20 | 97 | 0.0 | 0.0 | 0.00 | 0.00 | 0.00 | 83 | 944.8 |
| 20260906121905 | 20 | 97 | 0.0 | 0.0 | 0.00 | 0.00 | 0.00 | 83 | 944.8 |
| 20260906121805 | 20 | 117 | 0.0 | 0.0 | 0.00 | 0.00 | 0.00 | 83 | 944.7 |
| 20260906121705 | 20 | 117 | 0.0 | 0.0 | 0.00 | 0.00 | 0.00 | 84 | 944.8 |
| 20260906121605 | 20 | 117 | 0.0 | 0.0 | 0.00 | 0.00 | 0.00 | 84 | 944.7 |
| 20260906121505 | 20 | 117 | 0.0 | 0.0 | 0.00 | 0.00 | 0.00 | 84 | 944.7 |
| 20260906121404 | 20 | 117 | 0.0 | 0.0 | 0.00 | 0.00 | 0.00 | 84 | 944.8 |
| 20260906121305 | 20 | 117 | 0.0 | 0.0 | 0.00 | 0.00 | 0.00 | 84 | 944.7 |
| 20260906121205 | 21 | 117 | 0.0 | 0.0 | 0.00 | 0.00 | 0.00 | 84 | 944.7 |
| 20260906121105 | 21 | 117 | 0.0 | 0.0 | 0.00 | 0.00 | 0.00 | 84 | 944.7 |
| 20260906121002 | 20 | 117 | 0.0 | 0.0 | 0.00 | 0.00 | 0.00 | 84 | 944.7 |
| 20260906120901 | 21 | 117 | 0.0 | 0.0 | 0.00 | 0.00 | 0.00 | 84 | 944.7 |
| 20260906120801 | 20 | 117 | 0.0 | 0.0 | 0.00 | 0.00 | 0.00 | 84 | 944.7 |
| 20260906120735 | 20 | 117 | 0.0 | 0.0 | 0.00 | 0.00 | 0.00 | 83 | 944.7 |
| 20260906120558 | 20 | 117 | 0.0 | 0.0 | 0.00 | 0.00 | 0.00 | 83 | 944.7 |
| 20260906120455 | 20 | 117 | 0.0 | 0.0 | 0.00 | 0.00 | 0.00 | 82 | 944.7 |
| 20260906120351 | 20 | 117 | 0.0 | 0.0 | 0.00 | 0.00 | 0.00 | 82 | 944.7 |
| 20260906120251 | 20 | 117 | 0.0 | 0.0 | 0.00 | 0.00 | 0.00 | 82 | 944.6 |
| 20260906120151 | 20 | 117 | 0.0 | 0.0 | 0.00 | 0.00 | 0.00 | 82 | 944.6 |
| 20260906120051 | 21 | 117 | 0.0 | 0.0 | 0.00 | 0.00 | 0.00 | 83 | 944.6 |
| 20260906115948 | 21 | 117 | 0.0 | 0.0 | 0.00 | 0.00 | 0.00 | 82 | 944.6 |
| 20260906115849 | 21 | 117 | 0.0 | 0.0 | 0.00 | 0.00 | 0.00 | 82 | 944.6 |
| 20260906115747 | 21 | 117 | 0.0 | 0.0 | 0.00 | 0.00 | 0.00 | 82 | 944.6 |
| 20260906115729 | 21 | 117 | 0.0 | 0.0 | 0.00 | 0.00 | 0.00 | 82 | 944.6 |
| 20260906115545 | 21 | 117 | 0.0 | 0.0 | 0.00 | 0.00 | 0.00 | 81 | 944.6 |
| 20260906115442 | 21 | 117 | 0.0 | 0.0 | 0.00 | 0.00 | 0.00 | 81 | 944.6 |
| 20260906115341 | 21 | 117 | 0.0 | 0.0 | 0.00 | 0.00 | 0.00 | 81 | 944.5 |
| 20260906115241 | 21 | 117 | 0.0 | 0.0 | 0.00 | 0.00 | 0.00 | 81 | 944.5 |
| 20260906115141 | 21 | 117 | 0.0 | 0.0 | 0.00 | 0.00 | 0.00 | 82 | 944.5 |
| 20260906115039 | 21 | 117 | 0.0 | 0.0 | 0.00 | 0.00 | 0.00 | 82 | 944.5 |
| 20260906114936 | 21 | 117 | 0.0 | 0.0 | 0.00 | 0.00 | 0.00 | 82 | 944.5 |
| 20260906114837 | 21 | 117 | 0.0 | 0.0 | 0.00 | 0.00 | 0.00 | 82 | 944.5 |
| 20260906114735 | 21 | 117 | 0.0 | 0.0 | 0.00 | 0.00 | 0.00 | 82 | 944.5 |
| 20260906114635 | 21 | 117 | 0.0 | 0.0 | 0.00 | 0.00 | 0.00 | 81 | 944.5 |
| 20260906114533 | 21 | 117 | 0.0 | 0.0 | 0.00 | 0.00 | 0.00 | 81 | 944.5 |
| 20260906114430 | 21 | 117 | 0.0 | 0.0 | 0.00 | 0.00 | 0.00 | 81 | 944.5 |
| 20260906114331 | 21 | 117 | 0.0 | 0.0 | 0.00 | 0.00 | 0.00 | 81 | 944.5 |
| 20260906114229 | 21 | 117 | 0.0 | 0.0 | 0.00 | 0.00 | 0.00 | 81 | 944.4 |
| 20260906114129 | 21 | 117 | 0.0 | 0.0 | 0.00 | 0.00 | 0.00 | 81 | 944.4 |
| 20260906114027 | 21 | 117 | 0.0 | 0.0 | 0.00 | 0.00 | 0.00 | 81 | 944.4 |
| 20260906113925 | 21 | 117 | 0.0 | 0.0 | 0.00 | 0.00 | 0.00 | 81 | 944.4 |
| 20260906113825 | 21 | 117 | 0.0 | 0.0 | 0.00 | 0.00 | 0.00 | 81 | 944.4 |
| 20260906113723 | 21 | 117 | 0.0 | 0.0 | 0.00 | 0.00 | 0.00 | 81 | 944.4 |
| 20260906113623 | 21 | 117 | 0.0 | 0.0 | 0.00 | 0.00 | 0.00 | 81 | 944.4 |
| 20260906113521 | 21 | 117 | 0.0 | 0.0 | 0.00 | 0.00 | 0.00 | 81 | 944.3 |
| 20260906113419 | 21 | 117 | 0.0 | 0.0 | 0.00 | 0.00 | 0.00 | 81 | 944.4 |
| 20260906113320 | 21 | 117 | 0.0 | 0.0 | 0.00 | 0.00 | 0.00 | 81 | 944.3 |
| 20260906113217 | 21 | 117 | 0.0 | 0.0 | 0.00 | 0.00 | 0.00 | 81 | 944.3 |
| 20260906113158 | 21 | 117 | 0.0 | 0.0 | 0.00 | 0.00 | 0.00 | 81 | 944.4 |
| 20260906113014 | 21 | 117 | 0.0 | 0.0 | 0.00 | 0.00 | 0.00 | 81 | 944.4 |
| 20260906112912 | 21 | 117 | 0.0 | 0.0 | 0.00 | 0.00 | 0.00 | 81 | 944.4 |
| 20260906112812 | 21 | 117 | 0.0 | 0.0 | 0.00 | 0.00 | 0.00 | 81 | 944.5 |
| 20260906112710 | 21 | 117 | 0.0 | 0.0 | 0.00 | 0.00 | 0.00 | 81 | 944.5 |
| 20260906112609 | 21 | 117 | 0.0 | 0.0 | 0.00 | 0.00 | 0.00 | 81 | 944.5 |
| 20260906112508 | 21 | 117 | 0.0 | 0.0 | 0.00 | 0.00 | 0.00 | 81 | 944.5 |
| 20260906112406 | 21 | 117 | 0.0 | 0.0 | 0.00 | 0.00 | 0.00 | 81 | 944.5 |
| 20260906112306 | 21 | 117 | 0.0 | 0.0 | 0.00 | 0.00 | 0.00 | 80 | 944.5 |
| 20260906112201 | 21 | 117 | 0.0 | 0.0 | 0.00 | 0.00 | 0.00 | 80 | 944.5 |
| 20260906112146 | 21 | 117 | 0.0 | 0.0 | 0.00 | 0.00 | 0.00 | 80 | 944.5 |
| 20260906112001 | 21 | 117 | 0.0 | 0.0 | 0.00 | 0.00 | 0.00 | 80 | 944.5 |
| 20260906111900 | 21 | 117 | 0.0 | 0.0 | 0.00 | 0.00 | 0.00 | 81 | 944.5 |
| 20260906111757 | 21 | 117 | 0.0 | 0.0 | 0.00 | 0.00 | 0.00 | 80 | 944.4 |
| 20260906111657 | 21 | 117 | 0.0 | 0.0 | 0.00 | 0.00 | 0.00 | 80 | 944.5 |
| 20260906111641 | 21 | 117 | 0.0 | 0.0 | 0.00 | 0.00 | 0.00 | 80 | 944.4 |
| 20260906111457 | 21 | 117 | 0.0 | 0.0 | 0.00 | 0.00 | 0.00 | 80 | 944.4 |
| 20260906111354 | 21 | 117 | 0.0 | 0.0 | 0.00 | 0.00 | 0.00 | 80 | 944.4 |
| 20260906111255 | 21 | 117 | 0.0 | 0.0 | 0.00 | 0.00 | 0.00 | 80 | 944.3 |
| 20260906111153 | 21 | 117 | 0.0 | 0.0 | 0.00 | 0.00 | 0.00 | 80 | 944.3 |
| 20260906111053 | 21 | 117 | 0.0 | 0.0 | 0.00 | 0.00 | 0.00 | 80 | 944.3 |
| 20260906110951 | 21 | 117 | 0.0 | 0.0 | 0.00 | 0.00 | 0.00 | 80 | 944.3 |
| 20260906110848 | 21 | 117 | 0.0 | 0.0 | 0.00 | 0.00 | 0.00 | 80 | 944.3 |
| 20260906110749 | 21 | 117 | 0.0 | 0.0 | 0.00 | 0.00 | 0.00 | 80 | 944.3 |
| 20260906110647 | 21 | 117 | 0.0 | 0.0 | 0.00 | 0.00 | 0.00 | 80 | 944.3 |
| 20260906110547 | 21 | 117 | 0.0 | 0.0 | 0.00 | 0.00 | 0.00 | 80 | 944.3 |
| 20260906110445 | 21 | 117 | 0.0 | 0.0 | 0.00 | 0.00 | 0.00 | 80 | 944.3 |
| 20260906110343 | 21 | 117 | 0.0 | 0.0 | 0.00 | 0.00 | 0.00 | 80 | 944.3 |
| 20260906110243 | 21 | 117 | 0.0 | 0.0 | 0.00 | 0.00 | 0.00 | 80 | 944.3 |
| 20260906110141 | 21 | 117 | 0.0 | 0.0 | 0.00 | 0.00 | 0.00 | 80 | 944.3 |
| 20260906110041 | 21 | 117 | 0.0 | 3.2 | 0.00 | 0.00 | 0.00 | 81 | 944.3 |
| 20260906105939 | 21 | 117 | 0.0 | 3.2 | 0.00 | 0.00 | 0.00 | 80 | 944.3 |
| 20260906105837 | 21 | 117 | 1.6 | 3.2 | 0.00 | 0.00 | 0.00 | 80 | 944.3 |
| 20260906105732 | 21 | 117 | 1.6 | 4.8 | 0.00 | 0.00 | 0.00 | 79 | 944.3 |
| 20260906105631 | 21 | 117 | 1.6 | 4.8 | 0.00 | 0.00 | 0.00 | 79 | 944.2 |
| 20260906105530 | 21 | 117 | 1.6 | 6.4 | 0.00 | 0.00 | 0.00 | 80 | 944.2 |
| 20260906105431 | 21 | 117 | 3.2 | 6.4 | 0.00 | 0.00 | 0.00 | 79 | 944.2 |
| 20260906105331 | 21 | 117 | 3.2 | 6.4 | 0.00 | 0.00 | 0.00 | 80 | 944.2 |
| 20260906105226 | 21 | 117 | 3.2 | 6.4 | 0.00 | 0.00 | 0.00 | 80 | 944.2 |
| 20260906105125 | 21 | 117 | 1.6 | 6.4 | 0.00 | 0.00 | 0.00 | 80 | 944.2 |
| 20260906105025 | 21 | 117 | 1.6 | 6.4 | 0.00 | 0.00 | 0.00 | 80 | 944.2 |
| 20260906104925 | 21 | 117 | 1.6 | 6.4 | 0.00 | 0.00 | 0.00 | 80 | 944.1 |
| 20260906104824 | 21 | 117 | 1.6 | 6.4 | 0.00 | 0.00 | 0.00 | 81 | 944.1 |
| 20260906104721 | 21 | 117 | 1.6 | 6.4 | 0.00 | 0.00 | 0.00 | 81 | 944.1 |
| 20260906104621 | 21 | 117 | 0.0 | 6.4 | 0.00 | 0.00 | 0.00 | 81 | 944.2 |
| 20260906104521 | 21 | 117 | 0.0 | 6.4 | 0.00 | 0.00 | 0.00 | 81 | 944.2 |
| 20260906104421 | 21 | 117 | 0.0 | 0.0 | 0.00 | 0.00 | 0.00 | 81 | 944.2 |
| 20260906104318 | 21 | 111 | 0.0 | 0.0 | 0.00 | 0.00 | 0.00 | 82 | 944.2 |
| 20260906104219 | 21 | 101 | 0.0 | 0.0 | 0.00 | 0.00 | 0.00 | 82 | 944.2 |
| 20260906104117 | 21 | 101 | 0.0 | 0.0 | 0.00 | 0.00 | 0.00 | 83 | 944.2 |
| 20260906104017 | 21 | 101 | 0.0 | 0.0 | 0.00 | 0.00 | 0.00 | 83 | 944.2 |
| 20260906103915 | 21 | 101 | 0.0 | 0.0 | 0.00 | 0.00 | 0.00 | 82 | 944.2 |
| 20260906103813 | 21 | 97 | 0.0 | 0.0 | 0.00 | 0.00 | 0.00 | 80 | 944.2 |
| 20260906103713 | 21 | 91 | 0.0 | 0.0 | 0.00 | 0.00 | 0.00 | 80 | 944.2 |
| 20260906103610 | 21 | 90 | 0.0 | 0.0 | 0.00 | 0.00 | 0.00 | 80 | 944.1 |
| 20260906103510 | 21 | 84 | 0.0 | 0.0 | 0.00 | 0.00 | 0.00 | 80 | 944.1 |
| 20260906103408 | 21 | 84 | 0.0 | 0.0 | 0.00 | 0.00 | 0.00 | 80 | 944.1 |
| 20260906103306 | 21 | 84 | 0.0 | 0.0 | 0.00 | 0.00 | 0.00 | 80 | 944.1 |
| 20260906103201 | 21 | 84 | 0.0 | 0.0 | 0.00 | 0.00 | 0.00 | 80 | 944.1 |
| 20260906103101 | 21 | 84 | 0.0 | 0.0 | 0.00 | 0.00 | 0.00 | 80 | 944.1 |
| 20260906102900 | 21 | 84 | 0.0 | 0.0 | 0.00 | 0.00 | 0.00 | 80 | 944.2 |
| 20260906102800 | 21 | 84 | 0.0 | 0.0 | 0.00 | 0.00 | 0.00 | 81 | 944.2 |
| 20260906102657 | 21 | 84 | 0.0 | 0.0 | 0.00 | 0.00 | 0.00 | 81 | 944.2 |
| 20260906102555 | 21 | 84 | 0.0 | 0.0 | 0.00 | 0.00 | 0.00 | 82 | 944.2 |
| 20260906102455 | 21 | 84 | 0.0 | 0.0 | 0.00 | 0.00 | 0.00 | 80 | 944.2 |
| 20260906102355 | 21 | 84 | 0.0 | 0.0 | 0.00 | 0.00 | 0.00 | 79 | 944.2 |
| 20260906102254 | 21 | 84 | 0.0 | 0.0 | 0.00 | 0.00 | 0.00 | 79 | 944.2 |
| 20260906102154 | 21 | 84 | 0.0 | 0.0 | 0.00 | 0.00 | 0.00 | 79 | 944.1 |
| 20260906102053 | 21 | 84 | 0.0 | 0.0 | 0.00 | 0.00 | 0.00 | 79 | 944.1 |
| 20260906101952 | 21 | 84 | 0.0 | 0.0 | 0.00 | 0.00 | 0.00 | 79 | 944.2 |
| 20260906101850 | 21 | 84 | 0.0 | 0.0 | 0.00 | 0.00 | 0.00 | 79 | 944.2 |
| 20260906101748 | 21 | 84 | 0.0 | 0.0 | 0.00 | 0.00 | 0.00 | 79 | 944.1 |
| 20260906101648 | 21 | 84 | 0.0 | 0.0 | 0.00 | 0.00 | 0.00 | 79 | 944.2 |
| 20260906101547 | 21 | 84 | 0.0 | 0.0 | 0.00 | 0.00 | 0.00 | 79 | 944.2 |
| 20260906101446 | 21 | 84 | 0.0 | 0.0 | 0.00 | 0.00 | 0.00 | 79 | 944.2 |
| 20260906101344 | 21 | 84 | 0.0 | 0.0 | 0.00 | 0.00 | 0.00 | 79 | 944.2 |
| 20260906101242 | 21 | 84 | 0.0 | 3.2 | 0.00 | 0.00 | 0.00 | 79 | 944.2 |
| 20260906101142 | 21 | 86 | 0.0 | 3.2 | 0.00 | 0.00 | 0.00 | 79 | 944.2 |
| 20260906101041 | 21 | 69 | 0.0 | 3.2 | 0.00 | 0.00 | 0.00 | 80 | 944.2 |
| 20260906100939 | 21 | 69 | 0.0 | 3.2 | 0.00 | 0.00 | 0.00 | 80 | 944.1 |
| 20260906100839 | 21 | 97 | 0.0 | 3.2 | 0.00 | 0.00 | 0.00 | 80 | 944.2 |
| 20260906100736 | 21 | 97 | 0.0 | 3.2 | 0.00 | 0.00 | 0.00 | 80 | 944.2 |
| 20260906100637 | 21 | 97 | 0.0 | 3.2 | 0.00 | 0.00 | 0.00 | 81 | 944.2 |
| 20260906100535 | 21 | 97 | 0.0 | 3.2 | 0.00 | 0.00 | 0.00 | 81 | 944.1 |
| 20260906100435 | 21 | 97 | 0.0 | 3.2 | 0.00 | 0.00 | 0.00 | 81 | 944.0 |
| 20260906100333 | 21 | 97 | 0.0 | 3.2 | 0.00 | 0.00 | 0.00 | 81 | 944.0 |
| 20260906100231 | 21 | 97 | 0.0 | 3.2 | 0.00 | 0.00 | 0.00 | 81 | 943.9 |
| 20260906100129 | 21 | 97 | 0.0 | 3.2 | 0.00 | 0.00 | 0.00 | 81 | 944.0 |
| 20260906100029 | 21 | 97 | 0.0 | 3.2 | 0.00 | 0.00 | 0.00 | 81 | 944.0 |
| 20260906095929 | 21 | 97 | 0.0 | 0.0 | 0.00 | 0.00 | 0.00 | 81 | 944.0 |
| 20260906095827 | 21 | 97 | 0.0 | 0.0 | 0.00 | 0.00 | 0.00 | 81 | 943.9 |
| 20260906095725 | 21 | 97 | 0.0 | 0.0 | 0.00 | 0.00 | 0.00 | 81 | 944.0 |
| 20260906095625 | 21 | 97 | 0.0 | 0.0 | 0.00 | 0.00 | 0.00 | 81 | 944.0 |
| 20260906095523 | 21 | 97 | 0.0 | 0.0 | 0.00 | 0.00 | 0.00 | 81 | 944.0 |
| 20260906095423 | 21 | 97 | 0.0 | 0.0 | 0.00 | 0.00 | 0.00 | 80 | 943.9 |
| 20260906095321 | 21 | 97 | 0.0 | 0.0 | 0.00 | 0.00 | 0.00 | 79 | 943.9 |
| 20260906095218 | 21 | 97 | 0.0 | 0.0 | 0.00 | 0.00 | 0.00 | 80 | 943.9 |
| 20260906095119 | 21 | 97 | 0.0 | 0.0 | 0.00 | 0.00 | 0.00 | 79 | 943.9 |
| 20260906095017 | 21 | 97 | 0.0 | 0.0 | 0.00 | 0.00 | 0.00 | 79 | 944.0 |
| 20260906094917 | 21 | 97 | 0.0 | 0.0 | 0.00 | 0.00 | 0.00 | 79 | 943.9 |
| 20260906094815 | 21 | 97 | 0.0 | 0.0 | 0.00 | 0.00 | 0.00 | 79 | 943.9 |
| 20260906094712 | 21 | 97 | 0.0 | 0.0 | 0.00 | 0.00 | 0.00 | 79 | 943.9 |
| 20260906094613 | 21 | 97 | 0.0 | 0.0 | 0.00 | 0.00 | 0.00 | 79 | 943.9 |
| 20260906094511 | 21 | 97 | 0.0 | 0.0 | 0.00 | 0.00 | 0.00 | 79 | 943.9 |
| 20260906094411 | 21 | 97 | 0.0 | 0.0 | 0.00 | 0.00 | 0.00 | 79 | 943.9 |
| 20260906094309 | 21 | 97 | 0.0 | 0.0 | 0.00 | 0.00 | 0.00 | 80 | 943.9 |
| 20260906094206 | 21 | 97 | 0.0 | 0.0 | 0.00 | 0.00 | 0.00 | 80 | 943.9 |
| 20260906094107 | 21 | 97 | 0.0 | 0.0 | 0.00 | 0.00 | 0.00 | 80 | 943.9 |
| 20260906094005 | 21 | 97 | 0.0 | 0.0 | 0.00 | 0.00 | 0.00 | 80 | 943.9 |
| 20260906093905 | 21 | 97 | 0.0 | 1.6 | 0.00 | 0.00 | 0.00 | 80 | 943.9 |
| 20260906093803 | 21 | 97 | 0.0 | 1.6 | 0.00 | 0.00 | 0.00 | 80 | 943.9 |
| 20260906093700 | 21 | 97 | 0.0 | 1.6 | 0.00 | 0.00 | 0.00 | 80 | 943.9 |
| 20260906093556 | 21 | 97 | 0.0 | 1.6 | 0.00 | 0.00 | 0.00 | 80 | 943.9 |
| 20260906093355 | 21 | 97 | 0.0 | 1.6 | 0.00 | 0.00 | 0.00 | 80 | 944.0 |
| 20260906093255 | 21 | 97 | 0.0 | 1.6 | 0.00 | 0.00 | 0.00 | 81 | 943.9 |
| 20260906093155 | 21 | 97 | 0.0 | 1.6 | 0.00 | 0.00 | 0.00 | 81 | 943.9 |
| 20260906093055 | 21 | 97 | 0.0 | 1.6 | 0.00 | 0.00 | 0.00 | 82 | 944.0 |
| 20260906092853 | 21 | 97 | 0.0 | 1.6 | 0.00 | 0.00 | 0.00 | 79 | 944.0 |
| 20260906092751 | 21 | 97 | 0.0 | 1.6 | 0.00 | 0.00 | 0.00 | 78 | 944.0 |
| 20260906092649 | 21 | 97 | 0.0 | 3.2 | 0.00 | 0.00 | 0.00 | 78 | 944.0 |
| 20260906092549 | 21 | 97 | 0.0 | 3.2 | 0.00 | 0.00 | 0.00 | 78 | 944.0 |
| 20260906092347 | 21 | 97 | 1.6 | 3.2 | 0.00 | 0.00 | 0.00 | 79 | 943.9 |
| 20260906092245 | 21 | 97 | 1.6 | 3.2 | 0.00 | 0.00 | 0.00 | 79 | 943.9 |
| 20260906092143 | 21 | 97 | 1.6 | 3.2 | 0.00 | 0.00 | 0.00 | 79 | 943.9 |
| 20260906092043 | 21 | 97 | 1.6 | 3.2 | 0.00 | 0.00 | 0.00 | 79 | 943.9 |
| 20260906091841 | 21 | 97 | 1.6 | 3.2 | 0.00 | 0.00 | 0.00 | 79 | 943.9 |
| 20260906091739 | 21 | 97 | 0.0 | 3.2 | 0.00 | 0.00 | 0.00 | 79 | 943.9 |
| 20260906091637 | 21 | 97 | 0.0 | 3.2 | 0.00 | 0.00 | 0.00 | 79 | 943.9 |
| 20260906091537 | 21 | 97 | 0.0 | 3.2 | 0.00 | 0.00 | 0.00 | 79 | 943.8 |
| 20260906091435 | 21 | 97 | 0.0 | 3.2 | 0.00 | 0.00 | 0.00 | 78 | 943.8 |
| 20260906091335 | 21 | 97 | 0.0 | 3.2 | 0.00 | 0.00 | 0.00 | 77 | 943.9 |
| 20260906091233 | 21 | 110 | 0.0 | 0.0 | 0.00 | 0.00 | 0.00 | 77 | 943.8 |
| 20260906091131 | 21 | 110 | 0.0 | 0.0 | 0.00 | 0.00 | 0.00 | 77 | 943.9 |
| 20260906091031 | 21 | 125 | 0.0 | 0.0 | 0.00 | 0.00 | 0.00 | 77 | 943.9 |
| 20260906090929 | 21 | 125 | 0.0 | 0.0 | 0.00 | 0.00 | 0.00 | 77 | 943.9 |
| 20260906090829 | 21 | 125 | 0.0 | 0.0 | 0.00 | 0.00 | 0.00 | 77 | 943.9 |
| 20260906090727 | 21 | 125 | 0.0 | 0.0 | 0.00 | 0.00 | 0.00 | 77 | 943.9 |
| 20260906090624 | 21 | 125 | 0.0 | 0.0 | 0.00 | 0.00 | 0.00 | 77 | 943.9 |
| 20260906090520 | 21 | 125 | 0.0 | 0.0 | 0.00 | 0.00 | 0.00 | 77 | 943.9 |
| 20260906090418 | 21 | 125 | 0.0 | 0.0 | 0.00 | 0.00 | 0.00 | 77 | 943.9 |
| 20260906090318 | 22 | 125 | 0.0 | 0.0 | 0.00 | 0.00 | 0.00 | 77 | 943.9 |
| 20260906090216 | 22 | 125 | 0.0 | 0.0 | 0.00 | 0.00 | 0.00 | 77 | 943.9 |
| 20260906090114 | 22 | 125 | 0.0 | 0.0 | 0.00 | 0.00 | 0.00 | 77 | 943.8 |
| 20260906090011 | 22 | 125 | 0.0 | 0.0 | 0.00 | 0.00 | 0.00 | 77 | 943.8 |
| 20260906085909 | 22 | 125 | 0.0 | 0.0 | 0.00 | 0.00 | 0.00 | 77 | 943.8 |
| 20260906085809 | 22 | 125 | 0.0 | 0.0 | 0.00 | 0.00 | 0.00 | 77 | 943.8 |
| 20260906085709 | 22 | 125 | 0.0 | 0.0 | 0.00 | 0.00 | 0.00 | 78 | 943.8 |
| 20260906085608 | 22 | 125 | 0.0 | 0.0 | 0.00 | 0.00 | 0.00 | 78 | 943.8 |
| 20260906085508 | 22 | 125 | 0.0 | 0.0 | 0.00 | 0.00 | 0.00 | 78 | 943.7 |
| 20260906085406 | 22 | 125 | 0.0 | 0.0 | 0.00 | 0.00 | 0.00 | 77 | 943.8 |
| 20260906085307 | 22 | 125 | 0.0 | 0.0 | 0.00 | 0.00 | 0.00 | 77 | 943.8 |
| 20260906085205 | 22 | 125 | 0.0 | 0.0 | 0.00 | 0.00 | 0.00 | 76 | 943.8 |
| 20260906085102 | 22 | 125 | 0.0 | 0.0 | 0.00 | 0.00 | 0.00 | 76 | 943.8 |
| 20260906085025 | 22 | 125 | 0.0 | 0.0 | 0.00 | 0.00 | 0.00 | 76 | 943.8 |
| 20260906084857 | 22 | 125 | 0.0 | 0.0 | 0.00 | 0.00 | 0.00 | 76 | 943.8 |
| 20260906084757 | 22 | 125 | 0.0 | 0.0 | 0.00 | 0.00 | 0.00 | 76 | 943.8 |
| 20260906084657 | 22 | 125 | 0.0 | 0.0 | 0.00 | 0.00 | 0.00 | 76 | 943.8 |
| 20260906084556 | 22 | 125 | 0.0 | 0.0 | 0.00 | 0.00 | 0.00 | 76 | 943.8 |
| 20260906084453 | 22 | 125 | 0.0 | 0.0 | 0.00 | 0.00 | 0.00 | 77 | 943.8 |
| 20260906084351 | 22 | 125 | 0.0 | 0.0 | 0.00 | 0.00 | 0.00 | 77 | 943.8 |
| 20260906084251 | 22 | 125 | 0.0 | 0.0 | 0.00 | 0.00 | 0.00 | 75 | 943.8 |
| 20260906084151 | 22 | 125 | 0.0 | 0.0 | 0.00 | 0.00 | 0.00 | 75 | 943.8 |
| 20260906084050 | 22 | 125 | 0.0 | 0.0 | 0.00 | 0.00 | 0.00 | 74 | 943.8 |
| 20260906084012 | 22 | 125 | 0.0 | 0.0 | 0.00 | 0.00 | 0.00 | 74 | 943.8 |
| 20260906083849 | 22 | 125 | 0.0 | 0.0 | 0.00 | 0.00 | 0.00 | 74 | 943.8 |
| 20260906083749 | 22 | 125 | 0.0 | 0.0 | 0.00 | 0.00 | 0.00 | 74 | 943.8 |
| 20260906083646 | 22 | 125 | 0.0 | 0.0 | 0.00 | 0.00 | 0.00 | 74 | 943.8 |
| 20260906083544 | 22 | 125 | 0.0 | 0.0 | 0.00 | 0.00 | 0.00 | 74 | 943.8 |
| 20260906083444 | 22 | 125 | 0.0 | 0.0 | 0.00 | 0.00 | 0.00 | 74 | 943.8 |
| 20260906083342 | 22 | 125 | 0.0 | 0.0 | 0.00 | 0.00 | 0.00 | 74 | 943.8 |
| 20260906083242 | 22 | 125 | 0.0 | 1.6 | 0.00 | 0.00 | 0.00 | 74 | 943.7 |
| 20260906083140 | 22 | 125 | 0.0 | 1.6 | 0.00 | 0.00 | 0.00 | 74 | 943.7 |
| 20260906083038 | 22 | 125 | 0.0 | 1.6 | 0.00 | 0.00 | 0.00 | 74 | 943.7 |
| 20260906082933 | 22 | 125 | 0.0 | 1.6 | 0.00 | 0.00 | 0.00 | 74 | 943.7 |
| 20260906082832 | 22 | 125 | 0.0 | 1.6 | 0.00 | 0.00 | 0.00 | 74 | 943.7 |
| 20260906082732 | 22 | 125 | 0.0 | 1.6 | 0.00 | 0.00 | 0.00 | 74 | 943.6 |
| 20260906082632 | 22 | 125 | 0.0 | 1.6 | 0.00 | 0.00 | 0.00 | 74 | 943.6 |
| 20260906082532 | 22 | 125 | 0.0 | 1.6 | 0.00 | 0.00 | 0.00 | 74 | 943.6 |
| 20260906082433 | 22 | 125 | 0.0 | 1.6 | 0.00 | 0.00 | 0.00 | 75 | 943.7 |
| 20260906082330 | 22 | 125 | 0.0 | 1.6 | 0.00 | 0.00 | 0.00 | 74 | 943.7 |
| 20260906082228 | 22 | 125 | 0.0 | 1.6 | 0.00 | 0.00 | 0.00 | 74 | 943.7 |
| 20260906082128 | 22 | 125 | 0.0 | 1.6 | 0.00 | 0.00 | 0.00 | 74 | 943.7 |
| 20260906082026 | 22 | 125 | 0.0 | 3.2 | 0.00 | 0.00 | 0.00 | 73 | 943.7 |
| 20260906081924 | 22 | 125 | 0.0 | 3.2 | 0.00 | 0.00 | 0.00 | 73 | 943.7 |
| 20260906081824 | 22 | 125 | 1.6 | 4.8 | 0.00 | 0.00 | 0.00 | 73 | 943.7 |
| 20260906081722 | 22 | 125 | 1.6 | 4.8 | 0.00 | 0.00 | 0.00 | 73 | 943.7 |
| 20260906081622 | 22 | 125 | 1.6 | 4.8 | 0.00 | 0.00 | 0.00 | 73 | 943.6 |
| 20260906081520 | 22 | 125 | 1.6 | 4.8 | 0.00 | 0.00 | 0.00 | 73 | 943.7 |
| 20260906081442 | 22 | 125 | 1.6 | 4.8 | 0.00 | 0.00 | 0.00 | 73 | 943.6 |
| 20260906081314 | 22 | 125 | 1.6 | 4.8 | 0.00 | 0.00 | 0.00 | 73 | 943.6 |
| 20260906081214 | 22 | 125 | 3.2 | 4.8 | 0.00 | 0.00 | 0.00 | 73 | 943.6 |
| 20260906081115 | 22 | 125 | 3.2 | 4.8 | 0.00 | 0.00 | 0.00 | 74 | 943.6 |
| 20260906081015 | 22 | 125 | 3.2 | 4.8 | 0.00 | 0.00 | 0.00 | 74 | 943.7 |
| 20260906080912 | 22 | 125 | 3.2 | 4.8 | 0.00 | 0.00 | 0.00 | 75 | 943.6 |
| 20260906080813 | 22 | 125 | 3.2 | 4.8 | 0.00 | 0.00 | 0.00 | 75 | 943.7 |
| 20260906080713 | 22 | 125 | 3.2 | 4.8 | 0.00 | 0.00 | 0.00 | 76 | 943.7 |
| 20260906080610 | 22 | 125 | 3.2 | 4.8 | 0.00 | 0.00 | 0.00 | 74 | 943.6 |
| 20260906080508 | 22 | 131 | 3.2 | 4.8 | 0.00 | 0.00 | 0.00 | 73 | 943.7 |
| 20260906080404 | 22 | 131 | 3.2 | 4.8 | 0.00 | 0.00 | 0.00 | 73 | 943.7 |
| 20260906080304 | 22 | 138 | 1.6 | 4.8 | 0.00 | 0.00 | 0.00 | 73 | 943.7 |
| 20260906080204 | 23 | 132 | 1.6 | 4.8 | 0.00 | 0.00 | 0.00 | 74 | 943.6 |
| 20260906080105 | 23 | 132 | 1.6 | 4.8 | 0.00 | 0.00 | 0.00 | 73 | 943.7 |
| 20260906080002 | 23 | 128 | 1.6 | 4.8 | 0.00 | 0.00 | 0.00 | 74 | 943.7 |
| 20260906075856 | 23 | 132 | 0.0 | 4.8 | 0.00 | 0.00 | 0.00 | 73 | 943.7 |
| 20260906075756 | 23 | 109 | 0.0 | 3.2 | 0.00 | 0.00 | 0.00 | 71 | 943.7 |
| 20260906075656 | 23 | 109 | 0.0 | 3.2 | 0.00 | 0.00 | 0.00 | 71 | 943.8 |
| 20260906075556 | 23 | 109 | 0.0 | 3.2 | 0.00 | 0.00 | 0.00 | 71 | 943.8 |
| 20260906075456 | 23 | 109 | 0.0 | 1.6 | 0.00 | 0.00 | 0.00 | 71 | 943.8 |
| 20260906075352 | 23 | 109 | 0.0 | 1.6 | 0.00 | 0.00 | 0.00 | 71 | 943.8 |
| 20260906075250 | 23 | 109 | 0.0 | 1.6 | 0.00 | 0.00 | 0.00 | 71 | 943.8 |
| 20260906075150 | 23 | 109 | 0.0 | 1.6 | 0.00 | 0.00 | 0.00 | 70 | 943.8 |
| 20260906075050 | 23 | 109 | 0.0 | 1.6 | 0.00 | 0.00 | 0.00 | 70 | 943.8 |
| 20260906074950 | 23 | 109 | 0.0 | 1.6 | 0.00 | 0.00 | 0.00 | 70 | 943.8 |
| 20260906074844 | 23 | 109 | 0.0 | 1.6 | 0.00 | 0.00 | 0.00 | 70 | 943.8 |
| 20260906074744 | 23 | 109 | 0.0 | 1.6 | 0.00 | 0.00 | 0.00 | 70 | 943.8 |
| 20260906074644 | 23 | 109 | 0.0 | 1.6 | 0.00 | 0.00 | 0.00 | 70 | 943.8 |
| 20260906074544 | 23 | 109 | 0.0 | 3.2 | 0.00 | 0.00 | 0.00 | 70 | 943.9 |
| 20260906074444 | 23 | 109 | 0.0 | 3.2 | 0.00 | 0.00 | 0.00 | 71 | 943.8 |
| 20260906074341 | 23 | 109 | 0.0 | 3.2 | 0.00 | 0.00 | 0.00 | 70 | 943.8 |
| 20260906074239 | 23 | 109 | 1.6 | 4.8 | 0.00 | 0.00 | 0.00 | 70 | 943.9 |
| 20260906074139 | 23 | 109 | 1.6 | 4.8 | 0.00 | 0.00 | 0.00 | 70 | 943.9 |
| 20260906074039 | 23 | 109 | 1.6 | 4.8 | 0.00 | 0.00 | 0.00 | 70 | 943.9 |
| 20260906073938 | 23 | 109 | 1.6 | 4.8 | 0.00 | 0.00 | 0.00 | 70 | 944.0 |
| 20260906073838 | 23 | 109 | 1.6 | 4.8 | 0.00 | 0.00 | 0.00 | 70 | 943.9 |
| 20260906073736 | 23 | 109 | 3.2 | 6.4 | 0.00 | 0.00 | 0.00 | 70 | 943.9 |
| 20260906073636 | 23 | 109 | 3.2 | 6.4 | 0.00 | 0.00 | 0.00 | 70 | 943.9 |
| 20260906073535 | 23 | 109 | 3.2 | 6.4 | 0.00 | 0.00 | 0.00 | 70 | 944.0 |
| 20260906073432 | 23 | 109 | 3.2 | 6.4 | 0.00 | 0.00 | 0.00 | 70 | 943.9 |
| 20260906073331 | 23 | 109 | 3.2 | 6.4 | 0.00 | 0.00 | 0.00 | 70 | 944.0 |
| 20260906073231 | 23 | 96 | 3.2 | 6.4 | 0.00 | 0.00 | 0.00 | 70 | 944.0 |
| 20260906073131 | 23 | 99 | 3.2 | 6.4 | 0.00 | 0.00 | 0.00 | 70 | 944.1 |
| 20260906073029 | 23 | 111 | 3.2 | 6.4 | 0.00 | 0.00 | 0.00 | 70 | 944.1 |
| 20260906072926 | 23 | 106 | 3.2 | 6.4 | 0.00 | 0.00 | 0.00 | 70 | 944.1 |
| 20260906072823 | 23 | 94 | 3.2 | 6.4 | 0.00 | 0.00 | 0.00 | 70 | 944.1 |
| 20260906072720 | 23 | 98 | 3.2 | 6.4 | 0.00 | 0.00 | 0.00 | 70 | 944.1 |
| 20260906072621 | 23 | 97 | 3.2 | 6.4 | 0.00 | 0.00 | 0.00 | 71 | 944.1 |
| 20260906072521 | 23 | 103 | 3.2 | 6.4 | 0.00 | 0.00 | 0.00 | 72 | 944.1 |
| 20260906072421 | 23 | 96 | 3.2 | 4.8 | 0.00 | 0.00 | 0.00 | 73 | 944.1 |
| 20260906072314 | 23 | 106 | 3.2 | 4.8 | 0.00 | 0.00 | 0.00 | 73 | 944.1 |
| 20260906072214 | 23 | 96 | 3.2 | 4.8 | 0.00 | 0.00 | 0.00 | 73 | 944.2 |
| 20260906072114 | 23 | 96 | 3.2 | 4.8 | 0.00 | 0.00 | 0.00 | 72 | 944.2 |
| 20260906072014 | 23 | 105 | 3.2 | 4.8 | 0.00 | 0.00 | 0.00 | 71 | 944.2 |
| 20260906071914 | 23 | 113 | 1.6 | 4.8 | 0.00 | 0.00 | 0.00 | 71 | 944.2 |
| 20260906071810 | 23 | 113 | 1.6 | 4.8 | 0.00 | 0.00 | 0.00 | 71 | 944.2 |
| 20260906071710 | 23 | 106 | 1.6 | 4.8 | 0.00 | 0.00 | 0.00 | 71 | 944.2 |
| 20260906071610 | 23 | 101 | 1.6 | 4.8 | 0.00 | 0.00 | 0.00 | 71 | 944.2 |
| 20260906071510 | 23 | 112 | 1.6 | 4.8 | 0.00 | 0.00 | 0.00 | 71 | 944.2 |
| 20260906071408 | 23 | 112 | 0.0 | 3.2 | 0.00 | 0.00 | 0.00 | 71 | 944.2 |
| 20260906071304 | 23 | 99 | 0.0 | 3.2 | 0.00 | 0.00 | 0.00 | 71 | 944.2 |
| 20260906071202 | 23 | 111 | 0.0 | 3.2 | 0.00 | 0.00 | 0.00 | 71 | 944.3 |
| 20260906071102 | 23 | 175 | 0.0 | 0.0 | 0.00 | 0.00 | 0.00 | 71 | 944.2 |
| 20260906071002 | 23 | 242 | 0.0 | 0.0 | 0.00 | 0.00 | 0.00 | 69 | 944.2 |
| 20260906070902 | 23 | 242 | 0.0 | 0.0 | 0.00 | 0.00 | 0.00 | 69 | 944.2 |
| 20260906070758 | 23 | 242 | 0.0 | 0.0 | 0.00 | 0.00 | 0.00 | 69 | 944.2 |
| 20260906070656 | 23 | 242 | 0.0 | 0.0 | 0.00 | 0.00 | 0.00 | 69 | 944.2 |
| 20260906070556 | 23 | 242 | 0.0 | 0.0 | 0.00 | 0.00 | 0.00 | 68 | 944.2 |
| 20260906070456 | 23 | 242 | 0.0 | 0.0 | 0.00 | 0.00 | 0.00 | 69 | 944.3 |
| 20260906070356 | 23 | 242 | 0.0 | 3.2 | 0.00 | 0.00 | 0.00 | 68 | 944.3 |
| 20260906070254 | 23 | 242 | 0.0 | 3.2 | 0.00 | 0.00 | 0.00 | 68 | 944.2 |
| 20260906070154 | 23 | 242 | 0.0 | 3.2 | 0.00 | 0.00 | 0.00 | 68 | 944.3 |
| 20260906070054 | 23 | 242 | 1.6 | 3.2 | 0.00 | 0.00 | 0.00 | 68 | 944.3 |
| 20260906065952 | 23 | 242 | 1.6 | 3.2 | 0.00 | 0.00 | 0.00 | 68 | 944.2 |
| 20260906065850 | 23 | 221 | 1.6 | 4.8 | 0.00 | 0.00 | 0.00 | 68 | 944.2 |
| 20260906065813 | 23 | 221 | 1.6 | 4.8 | 0.00 | 0.00 | 0.00 | 67 | 944.2 |
| 20260906065645 | 24 | 95 | 1.6 | 4.8 | 0.00 | 0.00 | 0.00 | 67 | 944.2 |
| 20260906065544 | 24 | 95 | 3.2 | 4.8 | 0.00 | 0.00 | 0.00 | 67 | 944.2 |
| 20260906065444 | 24 | 95 | 3.2 | 4.8 | 0.00 | 0.00 | 0.00 | 67 | 944.2 |
| 20260906065344 | 24 | 95 | 3.2 | 4.8 | 0.00 | 0.00 | 0.00 | 66 | 944.2 |
| 20260906065242 | 24 | 95 | 3.2 | 4.8 | 0.00 | 0.00 | 0.00 | 67 | 944.3 |
| 20260906065142 | 24 | 95 | 3.2 | 4.8 | 0.00 | 0.00 | 0.00 | 67 | 944.3 |
| 20260906065042 | 24 | 95 | 3.2 | 4.8 | 0.00 | 0.00 | 0.00 | 67 | 944.3 |
| 20260906064940 | 24 | 95 | 3.2 | 6.4 | 0.00 | 0.00 | 0.00 | 66 | 944.3 |
| 20260906064838 | 24 | 95 | 3.2 | 6.4 | 0.00 | 0.00 | 0.00 | 66 | 944.3 |
| 20260906064735 | 24 | 103 | 3.2 | 6.4 | 0.00 | 0.00 | 0.00 | 66 | 944.3 |
| 20260906064633 | 24 | 102 | 3.2 | 6.4 | 0.00 | 0.00 | 0.00 | 66 | 944.3 |
| 20260906064532 | 24 | 111 | 3.2 | 6.4 | 0.00 | 0.00 | 0.00 | 66 | 944.3 |
| 20260906064432 | 24 | 100 | 3.2 | 6.4 | 0.00 | 0.00 | 0.00 | 67 | 944.3 |
| 20260906064332 | 23 | 105 | 3.2 | 6.4 | 0.00 | 0.00 | 0.00 | 67 | 944.3 |
| 20260906064227 | 23 | 96 | 3.2 | 6.4 | 0.00 | 0.00 | 0.00 | 67 | 944.3 |
| 20260906064127 | 23 | 103 | 3.2 | 6.4 | 0.00 | 0.00 | 0.00 | 67 | 944.4 |
| 20260906064026 | 23 | 102 | 3.2 | 6.4 | 0.00 | 0.00 | 0.00 | 68 | 944.4 |
| 20260906063926 | 23 | 107 | 1.6 | 6.4 | 0.00 | 0.00 | 0.00 | 68 | 944.3 |
| 20260906063826 | 23 | 94 | 1.6 | 6.4 | 0.00 | 0.00 | 0.00 | 68 | 944.3 |
| 20260906063721 | 23 | 101 | 1.6 | 6.4 | 0.00 | 0.00 | 0.00 | 68 | 944.3 |
| 20260906063621 | 23 | 111 | 0.0 | 6.4 | 0.00 | 0.00 | 0.00 | 69 | 944.4 |
| 20260906063521 | 23 | 111 | 0.0 | 4.8 | 0.00 | 0.00 | 0.00 | 69 | 944.3 |
| 20260906063421 | 23 | 104 | 0.0 | 3.2 | 0.00 | 0.00 | 0.00 | 69 | 944.4 |
| 20260906063320 | 23 | 111 | 0.0 | 3.2 | 0.00 | 0.00 | 0.00 | 71 | 944.4 |
| 20260906063242 | 23 | 142 | 0.0 | 3.2 | 0.00 | 0.00 | 0.00 | 69 | 944.4 |
| 20260906063119 | 23 | 142 | 0.0 | 3.2 | 0.00 | 0.00 | 0.00 | 67 | 944.5 |
| 20260906063019 | 23 | 142 | 1.6 | 3.2 | 0.00 | 0.00 | 0.00 | 67 | 944.5 |
| 20260906062916 | 23 | 142 | 1.6 | 3.2 | 0.00 | 0.00 | 0.00 | 68 | 944.5 |
| 20260906062815 | 23 | 132 | 1.6 | 3.2 | 0.00 | 0.00 | 0.00 | 67 | 944.5 |
| 20260906062710 | 23 | 139 | 1.6 | 4.8 | 0.00 | 0.00 | 0.00 | 67 | 944.5 |
| 20260906062608 | 23 | 150 | 1.6 | 4.8 | 0.00 | 0.00 | 0.00 | 67 | 944.5 |
| 20260906062508 | 23 | 157 | 1.6 | 6.4 | 0.00 | 0.00 | 0.00 | 67 | 944.5 |
| 20260906062408 | 23 | 138 | 1.6 | 6.4 | 0.00 | 0.00 | 0.00 | 67 | 944.5 |
| 20260906062308 | 23 | 150 | 1.6 | 6.4 | 0.00 | 0.00 | 0.00 | 67 | 944.5 |
| 20260906062206 | 23 | 150 | 1.6 | 6.4 | 0.00 | 0.00 | 0.00 | 68 | 944.5 |
| 20260906062106 | 23 | 142 | 1.6 | 6.4 | 0.00 | 0.00 | 0.00 | 68 | 944.6 |
| 20260906062006 | 23 | 150 | 1.6 | 6.4 | 0.00 | 0.00 | 0.00 | 68 | 944.6 |
| 20260906061904 | 23 | 150 | 1.6 | 6.4 | 0.00 | 0.00 | 0.00 | 69 | 944.6 |
| 20260906061802 | 23 | 144 | 1.6 | 6.4 | 0.00 | 0.00 | 0.00 | 69 | 944.6 |
| 20260906061658 | 24 | 141 | 1.6 | 6.4 | 0.00 | 0.00 | 0.00 | 69 | 944.6 |
| 20260906061558 | 24 | 136 | 1.6 | 6.4 | 0.00 | 0.00 | 0.00 | 68 | 944.6 |
| 20260906061458 | 24 | 118 | 0.0 | 6.4 | 0.00 | 0.00 | 0.00 | 68 | 944.6 |
| 20260906061358 | 24 | 131 | 0.0 | 3.2 | 0.00 | 0.00 | 0.00 | 69 | 944.6 |
| 20260906061256 | 24 | 104 | 0.0 | 0.0 | 0.00 | 0.00 | 0.00 | 68 | 944.6 |
| 20260906061152 | 24 | 104 | 0.0 | 0.0 | 0.00 | 0.00 | 0.00 | 68 | 944.6 |
| 20260906061050 | 24 | 104 | 0.0 | 0.0 | 0.00 | 0.00 | 0.00 | 68 | 944.6 |
| 20260906060950 | 24 | 104 | 0.0 | 0.0 | 0.00 | 0.00 | 0.00 | 68 | 944.6 |
| 20260906060850 | 24 | 104 | 0.0 | 0.0 | 0.00 | 0.00 | 0.00 | 67 | 944.6 |
| 20260906060750 | 24 | 104 | 0.0 | 0.0 | 0.00 | 0.00 | 0.00 | 66 | 944.6 |
| 20260906060650 | 24 | 104 | 0.0 | 0.0 | 0.00 | 0.00 | 0.00 | 66 | 944.6 |
| 20260906060548 | 24 | 104 | 0.0 | 0.0 | 0.00 | 0.00 | 0.00 | 65 | 944.7 |
| 20260906060448 | 24 | 104 | 0.0 | 0.0 | 0.00 | 0.00 | 0.00 | 66 | 944.6 |
| 20260906060346 | 24 | 104 | 0.0 | 0.0 | 0.00 | 0.00 | 0.00 | 64 | 944.6 |
| 20260906060244 | 24 | 104 | 0.0 | 0.0 | 0.00 | 0.00 | 0.00 | 64 | 944.6 |
| 20260906060144 | 25 | 104 | 0.0 | 0.0 | 0.00 | 0.00 | 0.00 | 64 | 944.6 |
| 20260906060042 | 25 | 104 | 0.0 | 0.0 | 0.00 | 0.00 | 0.00 | 64 | 944.5 |
| 20260906055942 | 25 | 104 | 0.0 | 0.0 | 0.00 | 0.00 | 0.00 | 64 | 944.5 |
| 20260906055840 | 25 | 104 | 0.0 | 0.0 | 0.00 | 0.00 | 0.00 | 64 | 944.6 |
| 20260906055738 | 25 | 104 | 0.0 | 0.0 | 0.00 | 0.00 | 0.00 | 65 | 944.6 |
| 20260906055634 | 25 | 104 | 0.0 | 0.0 | 0.00 | 0.00 | 0.00 | 65 | 944.6 |
| 20260906055532 | 25 | 104 | 0.0 | 1.6 | 0.00 | 0.00 | 0.00 | 63 | 944.6 |
| 20260906055432 | 25 | 104 | 0.0 | 1.6 | 0.00 | 0.00 | 0.00 | 63 | 944.6 |
| 20260906055332 | 25 | 104 | 0.0 | 3.2 | 0.00 | 0.00 | 0.00 | 63 | 944.6 |
| 20260906055232 | 25 | 104 | 0.0 | 3.2 | 0.00 | 0.00 | 0.00 | 62 | 944.7 |
| 20260906055132 | 25 | 104 | 1.6 | 4.8 | 0.00 | 0.00 | 0.00 | 62 | 944.6 |
| 20260906055030 | 25 | 104 | 1.6 | 4.8 | 0.00 | 0.00 | 0.00 | 62 | 944.6 |
| 20260906054930 | 25 | 104 | 1.6 | 4.8 | 0.00 | 0.00 | 0.00 | 61 | 944.6 |
| 20260906054828 | 25 | 104 | 1.6 | 4.8 | 0.00 | 0.00 | 0.00 | 61 | 944.6 |
| 20260906054726 | 25 | 104 | 1.6 | 4.8 | 0.00 | 0.00 | 0.00 | 61 | 944.6 |
| 20260906054524 | 25 | 104 | 3.2 | 4.8 | 0.00 | 0.00 | 0.00 | 61 | 944.6 |
| 20260906054424 | 25 | 104 | 3.2 | 4.8 | 0.00 | 0.00 | 0.00 | 60 | 944.6 |
| 20260906054322 | 25 | 115 | 3.2 | 4.8 | 0.00 | 0.00 | 0.00 | 60 | 944.6 |
| 20260906054220 | 25 | 104 | 3.2 | 4.8 | 0.00 | 0.00 | 0.00 | 60 | 944.6 |
| 20260906054116 | 25 | 121 | 3.2 | 4.8 | 0.00 | 0.00 | 0.00 | 60 | 944.5 |
| 20260906054014 | 25 | 106 | 3.2 | 4.8 | 0.00 | 0.00 | 0.00 | 62 | 944.5 |
| 20260906053914 | 26 | 115 | 3.2 | 4.8 | 0.00 | 0.00 | 0.00 | 62 | 944.5 |
| 20260906053814 | 26 | 113 | 3.2 | 6.4 | 0.00 | 0.00 | 0.00 | 62 | 944.5 |
| 20260906053714 | 26 | 112 | 3.2 | 6.4 | 0.00 | 0.00 | 0.00 | 62 | 944.5 |
| 20260906053614 | 26 | 111 | 3.2 | 6.4 | 0.00 | 0.00 | 0.00 | 60 | 944.5 |
| 20260906053512 | 26 | 117 | 3.2 | 6.4 | 0.00 | 0.00 | 0.00 | 61 | 944.5 |
| 20260906053412 | 26 | 106 | 3.2 | 6.4 | 0.00 | 0.00 | 0.00 | 60 | 944.5 |
| 20260906053312 | 26 | 94 | 4.8 | 6.4 | 0.00 | 0.00 | 0.00 | 60 | 944.4 |
| 20260906053212 | 26 | 98 | 4.8 | 6.4 | 0.00 | 0.00 | 0.00 | 59 | 944.5 |
| 20260906053058 | 26 | 103 | 4.8 | 6.4 | 0.00 | 0.00 | 0.00 | 58 | 944.5 |
| 20260906052958 | 26 | 112 | 4.8 | 6.4 | 0.00 | 0.00 | 0.00 | 58 | 944.4 |
| 20260906052858 | 26 | 113 | 4.8 | 6.4 | 0.00 | 0.00 | 0.00 | 58 | 944.4 |
| 20260906052759 | 26 | 115 | 4.8 | 6.4 | 0.00 | 0.00 | 0.00 | 58 | 944.4 |
| 20260906052658 | 26 | 103 | 4.8 | 6.4 | 0.00 | 0.00 | 0.00 | 58 | 944.4 |
| 20260906052558 | 26 | 109 | 4.8 | 6.4 | 0.00 | 0.00 | 0.00 | 58 | 944.4 |
| 20260906052458 | 26 | 100 | 4.8 | 6.4 | 0.00 | 0.00 | 0.00 | 58 | 944.4 |
| 20260906052358 | 26 | 109 | 4.8 | 6.4 | 0.00 | 0.00 | 0.00 | 58 | 944.4 |
| 20260906052258 | 26 | 108 | 4.8 | 6.4 | 0.00 | 0.00 | 0.00 | 58 | 944.4 |
| 20260906052156 | 26 | 114 | 4.8 | 6.4 | 0.00 | 0.00 | 0.00 | 58 | 944.4 |
| 20260906052056 | 26 | 119 | 4.8 | 6.4 | 0.00 | 0.00 | 0.00 | 58 | 944.4 |
| 20260906051956 | 26 | 103 | 4.8 | 6.4 | 0.00 | 0.00 | 0.00 | 58 | 944.4 |
| 20260906051856 | 26 | 107 | 4.8 | 6.4 | 0.00 | 0.00 | 0.00 | 58 | 944.4 |
| 20260906051756 | 26 | 83 | 4.8 | 6.4 | 0.00 | 0.00 | 0.00 | 58 | 944.4 |
| 20260906051714 | 26 | 98 | 4.8 | 6.4 | 0.00 | 0.00 | 0.00 | 59 | 944.4 |
| 20260906051555 | 26 | 112 | 4.8 | 6.4 | 0.00 | 0.00 | 0.00 | 59 | 944.4 |
| 20260906051455 | 26 | 118 | 4.8 | 6.4 | 0.00 | 0.00 | 0.00 | 59 | 944.4 |
| 20260906051355 | 26 | 116 | 4.8 | 6.4 | 0.00 | 0.00 | 0.00 | 59 | 944.4 |
| 20260906051255 | 26 | 111 | 4.8 | 6.4 | 0.00 | 0.00 | 0.00 | 59 | 944.4 |
| 20260906051154 | 26 | 123 | 4.8 | 6.4 | 0.00 | 0.00 | 0.00 | 59 | 944.4 |
| 20260906051054 | 26 | 107 | 4.8 | 6.4 | 0.00 | 0.00 | 0.00 | 59 | 944.4 |
| 20260906050954 | 26 | 109 | 4.8 | 6.4 | 0.00 | 0.00 | 0.00 | 60 | 944.4 |
| 20260906050854 | 26 | 109 | 4.8 | 6.4 | 0.00 | 0.00 | 0.00 | 59 | 944.4 |
| 20260906050754 | 26 | 127 | 4.8 | 6.4 | 0.00 | 0.00 | 0.00 | 59 | 944.4 |
| 20260906050654 | 25 | 94 | 4.8 | 6.4 | 0.00 | 0.00 | 0.00 | 60 | 944.4 |
| 20260906050554 | 25 | 113 | 4.8 | 6.4 | 0.00 | 0.00 | 0.00 | 60 | 944.4 |
| 20260906050454 | 25 | 118 | 4.8 | 6.4 | 0.00 | 0.00 | 0.00 | 60 | 944.4 |
| 20260906050354 | 25 | 121 | 4.8 | 6.4 | 0.00 | 0.00 | 0.00 | 60 | 944.4 |
| 20260906050254 | 25 | 118 | 4.8 | 6.4 | 0.00 | 0.00 | 0.00 | 61 | 944.4 |
| 20260906050152 | 25 | 116 | 4.8 | 6.4 | 0.00 | 0.00 | 0.00 | 61 | 944.4 |
| 20260906050052 | 26 | 127 | 3.2 | 6.4 | 0.00 | 0.00 | 0.00 | 62 | 944.3 |
| 20260906045951 | 26 | 124 | 3.2 | 6.4 | 0.00 | 0.00 | 0.00 | 65 | 944.3 |
| 20260906045851 | 26 | 120 | 3.2 | 6.4 | 0.00 | 0.00 | 0.00 | 65 | 944.3 |
| 20260906045751 | 26 | 127 | 3.2 | 6.4 | 0.00 | 0.00 | 0.00 | 67 | 944.4 |
| 20260906045714 | 26 | 126 | 3.2 | 4.8 | 0.00 | 0.00 | 0.00 | 64 | 944.4 |
| 20260906045549 | 26 | 124 | 3.2 | 4.8 | 0.00 | 0.00 | 0.00 | 60 | 944.3 |
| 20260906045449 | 26 | 130 | 3.2 | 4.8 | 0.00 | 0.00 | 0.00 | 60 | 944.4 |
| 20260906045349 | 26 | 126 | 3.2 | 4.8 | 0.00 | 0.00 | 0.00 | 60 | 944.4 |
| 20260906045249 | 26 | 128 | 3.2 | 4.8 | 0.00 | 0.00 | 0.00 | 60 | 944.4 |
| 20260906045214 | 26 | 132 | 3.2 | 4.8 | 0.00 | 0.00 | 0.00 | 60 | 944.4 |
| 20260906045049 | 26 | 130 | 3.2 | 4.8 | 0.00 | 0.00 | 0.00 | 62 | 944.5 |
| 20260906044945 | 26 | 132 | 3.2 | 4.8 | 0.00 | 0.00 | 0.00 | 62 | 944.4 |
| 20260906044845 | 26 | 133 | 3.2 | 4.8 | 0.00 | 0.00 | 0.00 | 63 | 944.4 |
| 20260906044745 | 26 | 130 | 3.2 | 4.8 | 0.00 | 0.00 | 0.00 | 65 | 944.4 |
| 20260906044645 | 26 | 134 | 3.2 | 4.8 | 0.00 | 0.00 | 0.00 | 63 | 944.4 |
| 20260906044545 | 26 | 134 | 3.2 | 4.8 | 0.00 | 0.00 | 0.00 | 62 | 944.4 |
| 20260906044445 | 26 | 134 | 3.2 | 4.8 | 0.00 | 0.00 | 0.00 | 60 | 944.5 |
| 20260906044345 | 26 | 134 | 3.2 | 4.8 | 0.00 | 0.00 | 0.00 | 59 | 944.5 |
| 20260906044245 | 26 | 134 | 3.2 | 4.8 | 0.00 | 0.00 | 0.00 | 60 | 944.4 |
| 20260906044145 | 26 | 134 | 3.2 | 6.4 | 0.00 | 0.00 | 0.00 | 60 | 944.4 |
| 20260906044045 | 26 | 129 | 3.2 | 6.4 | 0.00 | 0.00 | 0.00 | 58 | 944.4 |
| 20260906043945 | 26 | 141 | 3.2 | 6.4 | 0.00 | 0.00 | 0.00 | 57 | 944.5 |
| 20260906043845 | 26 | 140 | 3.2 | 6.4 | 0.00 | 0.00 | 0.00 | 57 | 944.4 |
| 20260906043745 | 26 | 142 | 3.2 | 6.4 | 0.00 | 0.00 | 0.00 | 56 | 944.4 |
| 20260906043646 | 26 | 128 | 3.2 | 6.4 | 0.00 | 0.00 | 0.00 | 56 | 944.5 |
| 20260906043545 | 26 | 134 | 3.2 | 6.4 | 0.00 | 0.00 | 0.00 | 56 | 944.4 |
| 20260906043445 | 26 | 133 | 3.2 | 6.4 | 0.00 | 0.00 | 0.00 | 56 | 944.4 |
| 20260906043345 | 26 | 132 | 4.8 | 6.4 | 0.00 | 0.00 | 0.00 | 57 | 944.4 |
| 20260906043245 | 26 | 126 | 4.8 | 6.4 | 0.00 | 0.00 | 0.00 | 57 | 944.4 |
| 20260906043145 | 26 | 129 | 3.2 | 6.4 | 0.00 | 0.00 | 0.00 | 57 | 944.5 |
| 20260906043041 | 26 | 123 | 3.2 | 6.4 | 0.00 | 0.00 | 0.00 | 56 | 944.5 |
| 20260906042941 | 26 | 126 | 3.2 | 6.4 | 0.00 | 0.00 | 0.00 | 57 | 944.5 |
| 20260906042841 | 26 | 122 | 3.2 | 6.4 | 0.00 | 0.00 | 0.00 | 58 | 944.5 |
| 20260906042741 | 26 | 132 | 3.2 | 6.4 | 0.00 | 0.00 | 0.00 | 57 | 944.5 |
| 20260906042641 | 26 | 128 | 3.2 | 6.4 | 0.00 | 0.00 | 0.00 | 57 | 944.4 |
| 20260906042541 | 27 | 129 | 3.2 | 6.4 | 0.00 | 0.00 | 0.00 | 56 | 944.4 |
| 20260906042441 | 27 | 134 | 3.2 | 6.4 | 0.00 | 0.00 | 0.00 | 56 | 944.5 |
| 20260906042341 | 27 | 136 | 3.2 | 6.4 | 0.00 | 0.00 | 0.00 | 56 | 944.4 |
| 20260906042241 | 27 | 129 | 3.2 | 6.4 | 0.00 | 0.00 | 0.00 | 57 | 944.5 |
| 20260906042213 | 27 | 119 | 3.2 | 6.4 | 0.00 | 0.00 | 0.00 | 57 | 944.4 |
| 20260906042041 | 27 | 118 | 3.2 | 6.4 | 0.00 | 0.00 | 0.00 | 61 | 944.4 |
| 20260906041941 | 27 | 120 | 3.2 | 6.4 | 0.00 | 0.00 | 0.00 | 60 | 944.4 |
| 20260906041841 | 27 | 114 | 3.2 | 6.4 | 0.00 | 0.00 | 0.00 | 60 | 944.4 |
| 20260906041741 | 27 | 111 | 3.2 | 6.4 | 0.00 | 0.00 | 0.00 | 58 | 944.4 |
| 20260906041641 | 27 | 109 | 3.2 | 6.4 | 0.00 | 0.00 | 0.00 | 56 | 944.4 |
| 20260906041541 | 27 | 112 | 3.2 | 6.4 | 0.00 | 0.00 | 0.00 | 56 | 944.4 |
| 20260906041441 | 27 | 101 | 3.2 | 6.4 | 0.00 | 0.00 | 0.00 | 56 | 944.4 |
| 20260906041341 | 27 | 126 | 3.2 | 6.4 | 0.00 | 0.00 | 0.00 | 56 | 944.4 |
| 20260906041241 | 27 | 84 | 3.2 | 6.4 | 0.00 | 0.00 | 0.00 | 56 | 944.4 |
| 20260906041137 | 27 | 103 | 3.2 | 6.4 | 0.00 | 0.00 | 0.00 | 56 | 944.4 |
| 20260906041037 | 27 | 104 | 3.2 | 6.4 | 0.00 | 0.00 | 0.00 | 57 | 944.4 |
| 20260906040937 | 27 | 99 | 3.2 | 6.4 | 0.00 | 0.00 | 0.00 | 59 | 944.4 |
| 20260906040837 | 27 | 109 | 3.2 | 6.4 | 0.00 | 0.00 | 0.00 | 56 | 944.4 |
| 20260906040737 | 27 | 101 | 3.2 | 6.4 | 0.00 | 0.00 | 0.00 | 57 | 944.4 |
| 20260906040637 | 27 | 103 | 4.8 | 6.4 | 0.00 | 0.00 | 0.00 | 56 | 944.3 |
| 20260906040536 | 27 | 78 | 4.8 | 9.7 | 0.00 | 0.00 | 0.00 | 55 | 944.3 |
| 20260906040437 | 28 | 87 | 4.8 | 9.7 | 0.00 | 0.00 | 0.00 | 54 | 944.4 |
| 20260906040337 | 28 | 109 | 4.8 | 9.7 | 0.00 | 0.00 | 0.00 | 54 | 944.4 |
| 20260906040237 | 28 | 105 | 4.8 | 9.7 | 0.00 | 0.00 | 0.00 | 53 | 944.4 |
| 20260906040213 | 28 | 113 | 4.8 | 9.7 | 0.00 | 0.00 | 0.00 | 53 | 944.4 |
| 20260906040037 | 28 | 112 | 4.8 | 9.7 | 0.00 | 0.00 | 0.00 | 52 | 944.4 |
| 20260906035937 | 28 | 107 | 4.8 | 9.7 | 0.00 | 0.00 | 0.00 | 52 | 944.4 |
| 20260906035837 | 28 | 111 | 4.8 | 9.7 | 0.00 | 0.00 | 0.00 | 53 | 944.4 |
| 20260906035737 | 28 | 108 | 4.8 | 9.7 | 0.00 | 0.00 | 0.00 | 52 | 944.4 |
| 20260906035637 | 28 | 105 | 4.8 | 9.7 | 0.00 | 0.00 | 0.00 | 52 | 944.3 |
| 20260906035537 | 28 | 105 | 4.8 | 9.7 | 0.00 | 0.00 | 0.00 | 53 | 944.3 |
| 20260906035437 | 28 | 105 | 4.8 | 9.7 | 0.00 | 0.00 | 0.00 | 52 | 944.4 |
| 20260906035337 | 28 | 97 | 4.8 | 9.7 | 0.00 | 0.00 | 0.00 | 52 | 944.3 |
| 20260906035233 | 28 | 104 | 4.8 | 9.7 | 0.00 | 0.00 | 0.00 | 52 | 944.3 |
| 20260906035133 | 28 | 111 | 4.8 | 9.7 | 0.00 | 0.00 | 0.00 | 52 | 944.3 |
| 20260906035033 | 28 | 124 | 4.8 | 9.7 | 0.00 | 0.00 | 0.00 | 52 | 944.3 |
| 20260906034933 | 28 | 91 | 4.8 | 9.7 | 0.00 | 0.00 | 0.00 | 52 | 944.3 |
| 20260906034833 | 28 | 88 | 4.8 | 9.7 | 0.00 | 0.00 | 0.00 | 52 | 944.3 |
| 20260906034733 | 28 | 103 | 4.8 | 9.7 | 0.00 | 0.00 | 0.00 | 52 | 944.2 |
| 20260906034633 | 28 | 101 | 4.8 | 9.7 | 0.00 | 0.00 | 0.00 | 52 | 944.2 |
| 20260906034533 | 28 | 106 | 4.8 | 6.4 | 0.00 | 0.00 | 0.00 | 51 | 944.2 |
| 20260906034433 | 28 | 90 | 4.8 | 6.4 | 0.00 | 0.00 | 0.00 | 51 | 944.2 |
| 20260906034333 | 28 | 104 | 4.8 | 6.4 | 0.00 | 0.00 | 0.00 | 51 | 944.2 |
| 20260906034232 | 28 | 82 | 4.8 | 6.4 | 0.00 | 0.00 | 0.00 | 51 | 944.2 |
| 20260906034132 | 28 | 111 | 4.8 | 6.4 | 0.00 | 0.00 | 0.00 | 51 | 944.2 |
| 20260906034033 | 28 | 111 | 4.8 | 6.4 | 0.00 | 0.00 | 0.00 | 51 | 944.2 |
| 20260906033933 | 28 | 90 | 4.8 | 6.4 | 0.00 | 0.00 | 0.00 | 52 | 944.2 |
| 20260906033833 | 28 | 99 | 4.8 | 6.4 | 0.00 | 0.00 | 0.00 | 51 | 944.2 |
| 20260906033733 | 28 | 104 | 4.8 | 6.4 | 0.00 | 0.00 | 0.00 | 51 | 944.2 |
| 20260906033633 | 28 | 108 | 4.8 | 6.4 | 0.00 | 0.00 | 0.00 | 51 | 944.2 |
| 20260906033533 | 28 | 102 | 4.8 | 6.4 | 0.00 | 0.00 | 0.00 | 51 | 944.2 |
| 20260906033433 | 28 | 97 | 4.8 | 6.4 | 0.00 | 0.00 | 0.00 | 51 | 944.2 |
| 20260906033327 | 28 | 101 | 4.8 | 6.4 | 0.00 | 0.00 | 0.00 | 51 | 944.2 |
| 20260906033227 | 28 | 113 | 4.8 | 8.0 | 0.00 | 0.00 | 0.00 | 53 | 944.1 |
| 20260906033127 | 28 | 102 | 4.8 | 9.7 | 0.00 | 0.00 | 0.00 | 53 | 944.1 |
| 20260906033027 | 28 | 113 | 4.8 | 9.7 | 0.00 | 0.00 | 0.00 | 52 | 944.1 |
| 20260906032926 | 28 | 111 | 4.8 | 9.7 | 0.00 | 0.00 | 0.00 | 52 | 944.1 |
| 20260906032823 | 28 | 113 | 4.8 | 9.7 | 0.00 | 0.00 | 0.00 | 51 | 944.1 |
| 20260906032722 | 28 | 107 | 4.8 | 9.7 | 0.00 | 0.00 | 0.00 | 51 | 944.1 |
| 20260906032620 | 28 | 126 | 4.8 | 9.7 | 0.00 | 0.00 | 0.00 | 51 | 944.0 |
| 20260906032521 | 28 | 123 | 4.8 | 9.7 | 0.00 | 0.00 | 0.00 | 50 | 944.0 |
| 20260906032421 | 28 | 111 | 4.8 | 9.7 | 0.00 | 0.00 | 0.00 | 50 | 944.0 |
| 20260906032315 | 28 | 115 | 4.8 | 9.7 | 0.00 | 0.00 | 0.00 | 52 | 944.0 |
| 20260906032215 | 28 | 109 | 4.8 | 9.7 | 0.00 | 0.00 | 0.00 | 51 | 944.0 |
| 20260906032200 | 28 | 128 | 4.8 | 9.7 | 0.00 | 0.00 | 0.00 | 50 | 943.9 |
| 20260906032015 | 28 | 112 | 4.8 | 9.7 | 0.00 | 0.00 | 0.00 | 51 | 943.9 |
| 20260906031914 | 28 | 110 | 4.8 | 9.7 | 0.00 | 0.00 | 0.00 | 51 | 943.9 |
| 20260906031809 | 28 | 124 | 4.8 | 9.7 | 0.00 | 0.00 | 0.00 | 50 | 943.9 |
| 20260906031709 | 28 | 119 | 4.8 | 9.7 | 0.00 | 0.00 | 0.00 | 50 | 943.8 |
| 20260906031609 | 28 | 103 | 4.8 | 6.4 | 0.00 | 0.00 | 0.00 | 49 | 943.8 |
| 20260906031509 | 28 | 111 | 4.8 | 6.4 | 0.00 | 0.00 | 0.00 | 50 | 943.8 |
| 20260906031408 | 29 | 124 | 4.8 | 9.7 | 0.00 | 0.00 | 0.00 | 49 | 943.8 |
| 20260906031304 | 29 | 129 | 4.8 | 9.7 | 0.00 | 0.00 | 0.00 | 50 | 943.8 |
| 20260906031203 | 29 | 111 | 4.8 | 9.7 | 0.00 | 0.00 | 0.00 | 49 | 943.8 |
| 20260906031103 | 29 | 109 | 4.8 | 9.7 | 0.00 | 0.00 | 0.00 | 50 | 943.8 |
| 20260906031003 | 29 | 111 | 4.8 | 9.7 | 0.00 | 0.00 | 0.00 | 49 | 943.8 |
| 20260906030903 | 29 | 116 | 4.8 | 9.7 | 0.00 | 0.00 | 0.00 | 49 | 943.8 |
| 20260906030759 | 29 | 116 | 4.8 | 9.7 | 0.00 | 0.00 | 0.00 | 48 | 943.7 |
| 20260906030659 | 29 | 111 | 4.8 | 9.7 | 0.00 | 0.00 | 0.00 | 48 | 943.7 |
| 20260906030642 | 29 | 91 | 4.8 | 9.7 | 0.00 | 0.00 | 0.00 | 48 | 943.7 |
| 20260906030458 | 29 | 105 | 4.8 | 11.3 | 0.00 | 0.00 | 0.00 | 49 | 943.7 |
| 20260906030356 | 29 | 115 | 4.8 | 11.3 | 0.00 | 0.00 | 0.00 | 48 | 943.7 |
| 20260906030253 | 29 | 117 | 4.8 | 11.3 | 0.00 | 0.00 | 0.00 | 48 | 943.6 |
| 20260906030151 | 29 | 109 | 4.8 | 11.3 | 0.00 | 0.00 | 0.00 | 48 | 943.6 |
| 20260906030051 | 29 | 95 | 4.8 | 11.3 | 0.00 | 0.00 | 0.00 | 48 | 943.6 |
| 20260906025951 | 29 | 102 | 4.8 | 11.3 | 0.00 | 0.00 | 0.00 | 47 | 943.6 |
| 20260906025850 | 29 | 99 | 4.8 | 11.3 | 0.00 | 0.00 | 0.00 | 47 | 943.6 |
| 20260906025745 | 30 | 98 | 4.8 | 11.3 | 0.00 | 0.00 | 0.00 | 47 | 943.6 |
| 20260906025645 | 30 | 94 | 4.8 | 11.3 | 0.00 | 0.00 | 0.00 | 47 | 943.5 |
| 20260906025545 | 30 | 104 | 4.8 | 11.3 | 0.00 | 0.00 | 0.00 | 47 | 943.5 |
| 20260906025443 | 30 | 98 | 4.8 | 11.3 | 0.00 | 0.00 | 0.00 | 47 | 943.5 |
| 20260906025342 | 30 | 116 | 4.8 | 11.3 | 0.00 | 0.00 | 0.00 | 46 | 943.5 |
| 20260906025237 | 30 | 91 | 4.8 | 11.3 | 0.00 | 0.00 | 0.00 | 47 | 943.5 |
| 20260906025137 | 30 | 83 | 4.8 | 11.3 | 0.00 | 0.00 | 0.00 | 47 | 943.5 |
| 20260906025123 | 30 | 96 | 6.4 | 11.3 | 0.00 | 0.00 | 0.00 | 46 | 943.5 |
| 20260906024937 | 30 | 97 | 6.4 | 11.3 | 0.00 | 0.00 | 0.00 | 47 | 943.5 |
| 20260906024836 | 30 | 111 | 6.4 | 12.9 | 0.00 | 0.00 | 0.00 | 46 | 943.5 |
| 20260906024731 | 30 | 99 | 6.4 | 12.9 | 0.00 | 0.00 | 0.00 | 46 | 943.5 |
| 20260906024631 | 30 | 116 | 6.4 | 12.9 | 0.00 | 0.00 | 0.00 | 46 | 943.4 |
| 20260906024531 | 30 | 92 | 6.4 | 12.9 | 0.00 | 0.00 | 0.00 | 46 | 943.4 |
| 20260906024431 | 30 | 84 | 6.4 | 12.9 | 0.00 | 0.00 | 0.00 | 46 | 943.4 |
| 20260906024331 | 30 | 90 | 6.4 | 12.9 | 0.00 | 0.00 | 0.00 | 46 | 943.4 |
| 20260906024227 | 30 | 111 | 6.4 | 12.9 | 0.00 | 0.00 | 0.00 | 46 | 943.4 |
| 20260906024124 | 30 | 92 | 6.4 | 12.9 | 0.00 | 0.00 | 0.00 | 46 | 943.4 |
| 20260906024024 | 30 | 71 | 6.4 | 12.9 | 0.00 | 0.00 | 0.00 | 46 | 943.4 |
| 20260906023925 | 30 | 93 | 6.4 | 12.9 | 0.00 | 0.00 | 0.00 | 46 | 943.4 |
| 20260906023825 | 30 | 98 | 6.4 | 12.9 | 0.00 | 0.00 | 0.00 | 46 | 943.3 |
| 20260906023719 | 30 | 103 | 6.4 | 12.9 | 0.00 | 0.00 | 0.00 | 46 | 943.3 |
| 20260906023619 | 30 | 86 | 6.4 | 12.9 | 0.00 | 0.00 | 0.00 | 46 | 943.2 |
| 20260906023519 | 30 | 104 | 6.4 | 12.9 | 0.00 | 0.00 | 0.00 | 46 | 943.2 |
| 20260906023418 | 30 | 101 | 6.4 | 11.3 | 0.00 | 0.00 | 0.00 | 46 | 943.2 |
| 20260906023318 | 30 | 116 | 6.4 | 11.3 | 0.00 | 0.00 | 0.00 | 46 | 943.3 |
| 20260906023213 | 30 | 90 | 6.4 | 11.3 | 0.00 | 0.00 | 0.00 | 45 | 943.2 |
| 20260906023113 | 30 | 90 | 6.4 | 11.3 | 0.00 | 0.00 | 0.00 | 45 | 943.2 |
| 20260906023058 | 30 | 95 | 6.4 | 9.7 | 0.00 | 0.00 | 0.00 | 46 | 943.2 |
| 20260906022913 | 30 | 110 | 6.4 | 11.3 | 0.00 | 0.00 | 0.00 | 45 | 943.2 |
| 20260906022812 | 30 | 92 | 6.4 | 11.3 | 0.00 | 0.00 | 0.00 | 45 | 943.2 |
| 20260906022707 | 31 | 98 | 6.4 | 11.3 | 0.00 | 0.00 | 0.00 | 45 | 943.1 |
| 20260906022607 | 31 | 78 | 6.4 | 11.3 | 0.00 | 0.00 | 0.00 | 44 | 943.1 |
| 20260906022507 | 31 | 74 | 6.4 | 12.9 | 0.00 | 0.00 | 0.00 | 45 | 943.1 |
| 20260906022407 | 31 | 90 | 6.4 | 12.9 | 0.00 | 0.00 | 0.00 | 45 | 943.2 |
| 20260906022307 | 31 | 98 | 8.0 | 12.9 | 0.00 | 0.00 | 0.00 | 44 | 943.1 |
| 20260906022200 | 31 | 100 | 8.0 | 12.9 | 0.00 | 0.00 | 0.00 | 44 | 943.1 |
| 20260906022101 | 31 | 98 | 8.0 | 12.9 | 0.00 | 0.00 | 0.00 | 44 | 943.0 |
| 20260906022001 | 31 | 89 | 8.0 | 12.9 | 0.00 | 0.00 | 0.00 | 44 | 943.0 |
| 20260906021901 | 31 | 103 | 8.0 | 12.9 | 0.00 | 0.00 | 0.00 | 44 | 943.0 |
| 20260906021801 | 31 | 113 | 8.0 | 14.5 | 0.00 | 0.00 | 0.00 | 44 | 943.0 |
| 20260906021658 | 31 | 115 | 8.0 | 14.5 | 0.00 | 0.00 | 0.00 | 44 | 943.0 |
| 20260906021554 | 31 | 81 | 8.0 | 14.5 | 0.00 | 0.00 | 0.00 | 44 | 943.0 |
| 20260906021540 | 31 | 98 | 8.0 | 14.5 | 0.00 | 0.00 | 0.00 | 44 | 943.0 |
| 20260906021355 | 31 | 119 | 8.0 | 14.5 | 0.00 | 0.00 | 0.00 | 44 | 942.9 |
| 20260906021254 | 31 | 83 | 8.0 | 14.5 | 0.00 | 0.00 | 0.00 | 44 | 942.9 |
| 20260906021151 | 31 | 94 | 8.0 | 14.5 | 0.00 | 0.00 | 0.00 | 43 | 942.9 |
| 20260906021051 | 31 | 110 | 8.0 | 14.5 | 0.00 | 0.00 | 0.00 | 43 | 942.9 |
| 20260906020951 | 31 | 131 | 8.0 | 14.5 | 0.00 | 0.00 | 0.00 | 43 | 942.9 |
| 20260906020851 | 31 | 84 | 8.0 | 14.5 | 0.00 | 0.00 | 0.00 | 43 | 942.9 |
| 20260906020748 | 31 | 113 | 8.0 | 14.5 | 0.00 | 0.00 | 0.00 | 43 | 942.9 |
| 20260906020643 | 31 | 116 | 8.0 | 14.5 | 0.00 | 0.00 | 0.00 | 44 | 942.9 |
| 20260906020543 | 31 | 80 | 8.0 | 12.9 | 0.00 | 0.00 | 0.00 | 43 | 942.8 |
| 20260906020529 | 31 | 126 | 8.0 | 12.9 | 0.00 | 0.00 | 0.00 | 43 | 942.9 |
| 20260906020343 | 31 | 110 | 8.0 | 12.9 | 0.00 | 0.00 | 0.00 | 43 | 942.9 |
| 20260906020243 | 31 | 107 | 9.7 | 14.5 | 0.00 | 0.00 | 0.00 | 43 | 942.9 |
| 20260906020136 | 31 | 95 | 9.7 | 14.5 | 0.00 | 0.00 | 0.00 | 42 | 942.9 |
| 20260906020036 | 31 | 111 | 9.7 | 14.5 | 0.00 | 0.00 | 0.00 | 43 | 942.8 |
| 20260906015936 | 31 | 101 | 9.7 | 14.5 | 0.00 | 0.00 | 0.00 | 42 | 942.8 |
| 20260906015837 | 32 | 114 | 9.7 | 14.5 | 0.00 | 0.00 | 0.00 | 43 | 942.8 |
| 20260906015737 | 32 | 119 | 9.7 | 14.5 | 0.00 | 0.00 | 0.00 | 43 | 942.8 |
| 20260906015631 | 32 | 109 | 9.7 | 14.5 | 0.00 | 0.00 | 0.00 | 42 | 942.8 |
| 20260906015530 | 32 | 102 | 9.7 | 14.5 | 0.00 | 0.00 | 0.00 | 42 | 942.7 |
| 20260906015431 | 32 | 113 | 9.7 | 14.5 | 0.00 | 0.00 | 0.00 | 42 | 942.7 |
| 20260906015330 | 32 | 115 | 9.7 | 14.5 | 0.00 | 0.00 | 0.00 | 42 | 942.7 |
| 20260906015230 | 32 | 116 | 9.7 | 14.5 | 0.00 | 0.00 | 0.00 | 42 | 942.7 |
| 20260906015125 | 32 | 111 | 9.7 | 14.5 | 0.00 | 0.00 | 0.00 | 42 | 942.7 |
| 20260906015025 | 32 | 109 | 9.7 | 14.5 | 0.00 | 0.00 | 0.00 | 42 | 942.7 |
| 20260906014925 | 32 | 101 | 9.7 | 14.5 | 0.00 | 0.00 | 0.00 | 41 | 942.7 |
| 20260906014825 | 32 | 121 | 9.7 | 14.5 | 0.00 | 0.00 | 0.00 | 41 | 942.7 |
| 20260906014724 | 32 | 112 | 9.7 | 16.1 | 0.00 | 0.00 | 0.00 | 41 | 942.7 |
| 20260906014619 | 32 | 110 | 9.7 | 16.1 | 0.00 | 0.00 | 0.00 | 41 | 942.7 |
| 20260906014519 | 32 | 112 | 9.7 | 16.1 | 0.00 | 0.00 | 0.00 | 41 | 942.7 |
| 20260906014505 | 32 | 128 | 9.7 | 16.1 | 0.00 | 0.00 | 0.00 | 41 | 942.7 |
| 20260906014319 | 32 | 113 | 9.7 | 16.1 | 0.00 | 0.00 | 0.00 | 41 | 942.7 |
| 20260906014218 | 32 | 127 | 9.7 | 16.1 | 0.00 | 0.00 | 0.00 | 41 | 942.7 |
| 20260906014112 | 32 | 130 | 9.7 | 16.1 | 0.00 | 0.00 | 0.00 | 41 | 942.6 |
| 20260906014012 | 32 | 105 | 9.7 | 16.1 | 0.00 | 0.00 | 0.00 | 41 | 942.6 |
| 20260906013912 | 32 | 126 | 9.7 | 16.1 | 0.00 | 0.00 | 0.00 | 41 | 942.6 |
| 20260906013813 | 32 | 131 | 9.7 | 16.1 | 0.00 | 0.00 | 0.00 | 40 | 942.5 |
| 20260906013712 | 32 | 133 | 9.7 | 16.1 | 0.00 | 0.00 | 0.00 | 41 | 942.5 |
| 20260906013608 | 32 | 112 | 9.7 | 16.1 | 0.00 | 0.00 | 0.00 | 41 | 942.5 |
| 20260906013508 | 32 | 138 | 9.7 | 17.7 | 0.00 | 0.00 | 0.00 | 40 | 942.5 |
| 20260906013409 | 32 | 88 | 9.7 | 17.7 | 0.00 | 0.00 | 0.00 | 40 | 942.5 |
| 20260906013206 | 32 | 111 | 11.3 | 17.7 | 0.00 | 0.00 | 0.00 | 40 | 942.5 |
| 20260906013102 | 32 | 111 | 11.3 | 17.7 | 0.00 | 0.00 | 0.00 | 40 | 942.4 |
| 20260906013001 | 32 | 122 | 9.7 | 17.7 | 0.00 | 0.00 | 0.00 | 40 | 942.4 |
| 20260906012901 | 32 | 148 | 9.7 | 17.7 | 0.00 | 0.00 | 0.00 | 40 | 942.4 |
| 20260906012800 | 32 | 113 | 9.7 | 17.7 | 0.00 | 0.00 | 0.00 | 40 | 942.4 |
| 20260906012700 | 32 | 104 | 9.7 | 17.7 | 0.00 | 0.00 | 0.00 | 40 | 942.4 |
| 20260906012555 | 32 | 104 | 9.7 | 17.7 | 0.00 | 0.00 | 0.00 | 40 | 942.3 |
| 20260906012455 | 32 | 119 | 9.7 | 17.7 | 0.00 | 0.00 | 0.00 | 40 | 942.3 |
| 20260906012355 | 32 | 105 | 9.7 | 17.7 | 0.00 | 0.00 | 0.00 | 40 | 942.3 |
| 20260906012255 | 32 | 101 | 9.7 | 17.7 | 0.00 | 0.00 | 0.00 | 40 | 942.3 |
| 20260906012154 | 32 | 80 | 9.7 | 17.7 | 0.00 | 0.00 | 0.00 | 40 | 942.2 |
| 20260906012049 | 33 | 103 | 9.7 | 17.7 | 0.00 | 0.00 | 0.00 | 40 | 942.2 |
| 20260906011949 | 33 | 105 | 11.3 | 20.9 | 0.00 | 0.00 | 0.00 | 40 | 942.2 |
| 20260906011849 | 33 | 115 | 11.3 | 20.9 | 0.00 | 0.00 | 0.00 | 40 | 942.2 |
| 20260906011749 | 33 | 92 | 11.3 | 20.9 | 0.00 | 0.00 | 0.00 | 39 | 942.2 |
| 20260906011648 | 33 | 136 | 11.3 | 20.9 | 0.00 | 0.00 | 0.00 | 39 | 942.2 |
| 20260906011543 | 33 | 109 | 11.3 | 20.9 | 0.00 | 0.00 | 0.00 | 39 | 942.2 |
| 20260906011443 | 33 | 110 | 11.3 | 20.9 | 0.00 | 0.00 | 0.00 | 40 | 942.1 |
| 20260906011343 | 33 | 114 | 12.9 | 20.9 | 0.00 | 0.00 | 0.00 | 39 | 942.2 |
| 20260906011243 | 33 | 97 | 12.9 | 22.5 | 0.00 | 0.00 | 0.00 | 39 | 942.2 |
| 20260906011143 | 33 | 117 | 12.9 | 22.5 | 0.00 | 0.00 | 0.00 | 40 | 942.2 |
| 20260906011039 | 33 | 138 | 11.3 | 22.5 | 0.00 | 0.00 | 0.00 | 39 | 942.1 |
| 20260906010939 | 33 | 114 | 11.3 | 22.5 | 0.00 | 0.00 | 0.00 | 39 | 942.1 |
| 20260906010838 | 33 | 119 | 12.9 | 22.5 | 0.00 | 0.00 | 0.00 | 39 | 942.1 |
| 20260906010739 | 33 | 78 | 12.9 | 22.5 | 0.00 | 0.00 | 0.00 | 39 | 942.1 |
| 20260906010637 | 33 | 145 | 12.9 | 22.5 | 0.00 | 0.00 | 0.00 | 39 | 942.1 |
| 20260906010532 | 33 | 123 | 12.9 | 22.5 | 0.00 | 0.00 | 0.00 | 39 | 942.1 |
| 20260906010430 | 33 | 105 | 11.3 | 22.5 | 0.00 | 0.00 | 0.00 | 39 | 942.1 |
| 20260906010330 | 33 | 111 | 11.3 | 22.5 | 0.00 | 0.00 | 0.00 | 39 | 942.1 |
| 20260906010230 | 33 | 109 | 11.3 | 19.3 | 0.00 | 0.00 | 0.00 | 39 | 942.1 |
| 20260906010130 | 33 | 128 | 11.3 | 22.5 | 0.00 | 0.00 | 0.00 | 39 | 942.1 |
| 20260906010025 | 33 | 103 | 12.9 | 22.5 | 0.00 | 0.00 | 0.00 | 39 | 942.0 |
| 20260906005925 | 33 | 102 | 12.9 | 22.5 | 0.00 | 0.00 | 0.00 | 39 | 942.0 |
| 20260906005825 | 33 | 121 | 12.9 | 22.5 | 0.00 | 0.00 | 0.00 | 39 | 941.9 |
| 20260906005725 | 33 | 107 | 12.9 | 22.5 | 0.00 | 0.00 | 0.00 | 39 | 942.0 |
| 20260906005624 | 33 | 113 | 12.9 | 22.5 | 0.00 | 0.00 | 0.00 | 38 | 942.0 |
| 20260906005521 | 33 | 153 | 12.9 | 22.5 | 0.00 | 0.00 | 0.00 | 38 | 942.0 |
| 20260906005419 | 33 | 103 | 14.5 | 22.5 | 0.00 | 0.00 | 0.00 | 38 | 942.0 |
| 20260906005319 | 33 | 103 | 14.5 | 22.5 | 0.00 | 0.00 | 0.00 | 38 | 942.0 |
| 20260906005219 | 33 | 95 | 14.5 | 22.5 | 0.00 | 0.00 | 0.00 | 38 | 941.9 |
| 20260906005118 | 33 | 92 | 14.5 | 24.1 | 0.00 | 0.00 | 0.00 | 38 | 942.0 |
| 20260906005018 | 33 | 96 | 14.5 | 24.1 | 0.00 | 0.00 | 0.00 | 38 | 941.9 |
| 20260906004915 | 33 | 111 | 14.5 | 24.1 | 0.00 | 0.00 | 0.00 | 38 | 942.0 |
| 20260906004859 | 33 | 136 | 16.1 | 24.1 | 0.00 | 0.00 | 0.00 | 38 | 941.9 |
| 20260906004715 | 34 | 84 | 16.1 | 24.1 | 0.00 | 0.00 | 0.00 | 38 | 942.0 |
| 20260906004612 | 34 | 109 | 16.1 | 29.0 | 0.00 | 0.00 | 0.00 | 38 | 942.0 |
| 20260906004506 | 34 | 138 | 16.1 | 29.0 | 0.00 | 0.00 | 0.00 | 38 | 942.0 |
| 20260906004407 | 34 | 107 | 16.1 | 29.0 | 0.00 | 0.00 | 0.00 | 38 | 941.9 |
| 20260906004307 | 34 | 99 | 16.1 | 29.0 | 0.00 | 0.00 | 0.00 | 38 | 941.9 |
| 20260906004207 | 34 | 127 | 16.1 | 29.0 | 0.00 | 0.00 | 0.00 | 38 | 941.9 |
| 20260906004107 | 34 | 111 | 16.1 | 29.0 | 0.00 | 0.00 | 0.00 | 38 | 941.9 |
| 20260906004000 | 34 | 93 | 16.1 | 29.0 | 0.00 | 0.00 | 0.00 | 37 | 941.9 |
| 20260906003900 | 34 | 112 | 16.1 | 29.0 | 0.00 | 0.00 | 0.00 | 38 | 941.9 |
| 20260906003800 | 34 | 136 | 16.1 | 29.0 | 0.00 | 0.00 | 0.00 | 38 | 941.9 |
| 20260906003700 | 34 | 109 | 16.1 | 29.0 | 0.00 | 0.00 | 0.00 | 38 | 941.9 |
| 20260906003600 | 34 | 110 | 16.1 | 29.0 | 0.00 | 0.00 | 0.00 | 38 | 941.9 |
| 20260906003456 | 34 | 105 | 16.1 | 29.0 | 0.00 | 0.00 | 0.00 | 38 | 941.9 |
| 20260906003356 | 34 | 113 | 14.5 | 29.0 | 0.00 | 0.00 | 0.00 | 38 | 941.9 |
| 20260906003256 | 34 | 102 | 14.5 | 29.0 | 0.00 | 0.00 | 0.00 | 38 | 941.9 |
| 20260906003156 | 34 | 91 | 14.5 | 29.0 | 0.00 | 0.00 | 0.00 | 38 | 941.9 |
| 20260906003054 | 34 | 110 | 14.5 | 29.0 | 0.00 | 0.00 | 0.00 | 38 | 941.9 |
| 20260906002951 | 34 | 120 | 14.5 | 29.0 | 0.00 | 0.00 | 0.00 | 38 | 941.9 |
| 20260906002849 | 34 | 105 | 12.9 | 29.0 | 0.00 | 0.00 | 0.00 | 38 | 942.0 |
| 20260906002749 | 35 | 109 | 12.9 | 22.5 | 0.00 | 0.00 | 0.00 | 38 | 941.9 |
| 20260906002649 | 35 | 118 | 12.9 | 22.5 | 0.00 | 0.00 | 0.00 | 38 | 941.9 |
| 20260906002548 | 35 | 98 | 12.9 | 22.5 | 0.00 | 0.00 | 0.00 | 38 | 941.9 |
| 20260906002445 | 35 | 94 | 12.9 | 22.5 | 0.00 | 0.00 | 0.00 | 39 | 941.9 |
| 20260906002345 | 35 | 101 | 12.9 | 22.5 | 0.00 | 0.00 | 0.00 | 38 | 941.9 |
| 20260906002245 | 35 | 94 | 12.9 | 22.5 | 0.00 | 0.00 | 0.00 | 38 | 941.9 |
| 20260906002144 | 35 | 130 | 12.9 | 22.5 | 0.00 | 0.00 | 0.00 | 38 | 941.9 |
| 20260906002042 | 35 | 103 | 12.9 | 22.5 | 0.00 | 0.00 | 0.00 | 38 | 941.9 |
| 20260906001939 | 35 | 93 | 14.5 | 24.1 | 0.00 | 0.00 | 0.00 | 38 | 941.8 |
| 20260906001837 | 35 | 120 | 14.5 | 24.1 | 0.00 | 0.00 | 0.00 | 38 | 941.8 |
| 20260906001823 | 35 | 141 | 14.5 | 24.1 | 0.00 | 0.00 | 0.00 | 38 | 941.8 |
| 20260906001637 | 35 | 127 | 14.5 | 24.1 | 0.00 | 0.00 | 0.00 | 39 | 941.8 |
| 20260906001540 | 35 | 132 | 14.5 | 24.1 | 0.00 | 0.00 | 0.00 | 38 | 941.8 |
| 20260906001430 | 35 | 121 | 14.5 | 24.1 | 0.00 | 0.00 | 0.00 | 38 | 941.8 |
| 20260906001330 | 35 | 121 | 14.5 | 24.1 | 0.00 | 0.00 | 0.00 | 38 | 941.8 |
| 20260906001316 | 35 | 111 | 14.5 | 24.1 | 0.00 | 0.00 | 0.00 | 38 | 941.8 |
| 20260906001131 | 35 | 113 | 14.5 | 24.1 | 0.00 | 0.00 | 0.00 | 38 | 941.8 |
| 20260906001030 | 35 | 78 | 14.5 | 24.1 | 0.00 | 0.00 | 0.00 | 38 | 941.8 |
| 20260906000925 | 35 | 117 | 14.5 | 22.5 | 0.00 | 0.00 | 0.00 | 39 | 941.8 |
| 20260906000825 | 35 | 93 | 14.5 | 22.5 | 0.00 | 0.00 | 0.00 | 38 | 941.8 |
| 20260906000725 | 35 | 107 | 14.5 | 24.1 | 0.00 | 0.00 | 0.00 | 38 | 941.8 |
| 20260906000625 | 35 | 125 | 14.5 | 24.1 | 0.00 | 0.00 | 0.00 | 38 | 941.8 |
| 20260906000524 | 35 | 112 | 14.5 | 24.1 | 0.00 | 0.00 | 0.00 | 38 | 941.8 |
| 20260906000419 | 35 | 131 | 14.5 | 24.1 | 0.00 | 0.00 | 0.00 | 38 | 941.8 |
| 20260906000319 | 35 | 127 | 14.5 | 24.1 | 0.00 | 0.00 | 0.00 | 38 | 941.8 |
| 20260906000219 | 35 | 102 | 14.5 | 24.1 | 0.00 | 0.00 | 0.00 | 38 | 941.7 |
| 20260906000119 | 35 | 94 | 16.1 | 24.1 | 0.00 | 0.00 | 0.00 | 38 | 941.7 |
| 20260906000018 | 35 | 102 | 16.1 | 24.1 | 0.00 | 0.00 | 0.00 | 37 | 941.8 |
| 20260905235913 | 35 | 144 | 16.1 | 24.1 | 0.00 | 0.00 | 0.00 | 37 | 941.7 |
| 20260905235813 | 35 | 99 | 16.1 | 24.1 | 0.00 | 0.00 | 0.00 | 38 | 941.7 |
| 20260905235713 | 35 | 132 | 14.5 | 24.1 | 0.00 | 0.00 | 0.00 | 38 | 941.7 |
| 20260905235613 | 35 | 111 | 14.5 | 24.1 | 0.00 | 0.00 | 0.00 | 38 | 941.7 |
| 20260905235512 | 35 | 138 | 14.5 | 24.1 | 0.00 | 0.00 | 0.00 | 38 | 941.7 |
| 20260905235407 | 35 | 92 | 14.5 | 24.1 | 0.00 | 0.00 | 0.00 | 37 | 941.7 |
| 20260905235307 | 35 | 97 | 14.5 | 24.1 | 0.00 | 0.00 | 0.00 | 37 | 941.7 |
| 20260905235207 | 35 | 86 | 14.5 | 24.1 | 0.00 | 0.00 | 0.00 | 37 | 941.7 |
| 20260905235107 | 36 | 93 | 14.5 | 24.1 | 0.00 | 0.00 | 0.00 | 38 | 941.7 |
| 20260905235006 | 36 | 125 | 12.9 | 24.1 | 0.00 | 0.00 | 0.00 | 37 | 941.7 |
| 20260905234901 | 36 | 146 | 12.9 | 24.1 | 0.00 | 0.00 | 0.00 | 37 | 941.7 |
| 20260905234801 | 36 | 120 | 14.5 | 24.1 | 0.00 | 0.00 | 0.00 | 37 | 941.7 |
| 20260905234747 | 36 | 103 | 14.5 | 24.1 | 0.00 | 0.00 | 0.00 | 37 | 941.7 |
| 20260905234601 | 36 | 108 | 14.5 | 24.1 | 0.00 | 0.00 | 0.00 | 37 | 941.7 |
| 20260905234500 | 36 | 105 | 14.5 | 24.1 | 0.00 | 0.00 | 0.00 | 39 | 941.7 |
| 20260905234356 | 36 | 105 | 14.5 | 24.1 | 0.00 | 0.00 | 0.00 | 38 | 941.6 |
| 20260905234254 | 36 | 81 | 14.5 | 24.1 | 0.00 | 0.00 | 0.00 | 38 | 941.7 |
| 20260905234154 | 36 | 101 | 14.5 | 24.1 | 0.00 | 0.00 | 0.00 | 37 | 941.6 |
| 20260905234054 | 36 | 106 | 14.5 | 24.1 | 0.00 | 0.00 | 0.00 | 38 | 941.6 |
| 20260905233955 | 36 | 101 | 14.5 | 25.7 | 0.00 | 0.00 | 0.00 | 37 | 941.6 |
| 20260905233849 | 36 | 113 | 16.1 | 25.7 | 0.00 | 0.00 | 0.00 | 37 | 941.6 |
| 20260905233749 | 36 | 96 | 16.1 | 25.7 | 0.00 | 0.00 | 0.00 | 38 | 941.5 |
| 20260905233735 | 36 | 126 | 16.1 | 25.7 | 0.00 | 0.00 | 0.00 | 37 | 941.5 |
| 20260905233549 | 36 | 99 | 16.1 | 25.7 | 0.00 | 0.00 | 0.00 | 38 | 941.5 |
| 20260905233448 | 36 | 96 | 16.1 | 25.7 | 0.00 | 0.00 | 0.00 | 38 | 941.6 |
| 20260905233342 | 36 | 94 | 16.1 | 25.7 | 0.00 | 0.00 | 0.00 | 37 | 941.5 |
| 20260905233242 | 36 | 90 | 16.1 | 25.7 | 0.00 | 0.00 | 0.00 | 37 | 941.5 |
| 20260905233142 | 36 | 114 | 16.1 | 25.7 | 0.00 | 0.00 | 0.00 | 37 | 941.4 |
| 20260905233043 | 36 | 129 | 16.1 | 25.7 | 0.00 | 0.00 | 0.00 | 37 | 941.4 |
| 20260905232942 | 36 | 121 | 16.1 | 25.7 | 0.00 | 0.00 | 0.00 | 37 | 941.4 |
| 20260905232836 | 36 | 107 | 14.5 | 25.7 | 0.00 | 0.00 | 0.00 | 37 | 941.5 |
| 20260905232736 | 36 | 112 | 14.5 | 25.7 | 0.00 | 0.00 | 0.00 | 37 | 941.4 |
| 20260905232636 | 36 | 119 | 14.5 | 25.7 | 0.00 | 0.00 | 0.00 | 37 | 941.4 |
| 20260905232536 | 36 | 147 | 14.5 | 25.7 | 0.00 | 0.00 | 0.00 | 37 | 941.5 |
| 20260905232437 | 36 | 116 | 12.9 | 25.7 | 0.00 | 0.00 | 0.00 | 37 | 941.4 |
| 20260905232332 | 36 | 126 | 12.9 | 25.7 | 0.00 | 0.00 | 0.00 | 37 | 941.4 |
| 20260905232232 | 36 | 118 | 12.9 | 24.1 | 0.00 | 0.00 | 0.00 | 37 | 941.4 |
| 20260905232133 | 36 | 94 | 12.9 | 22.5 | 0.00 | 0.00 | 0.00 | 36 | 941.3 |
| 20260905232032 | 36 | 116 | 11.3 | 22.5 | 0.00 | 0.00 | 0.00 | 37 | 941.4 |
| 20260905231930 | 36 | 123 | 11.3 | 20.9 | 0.00 | 0.00 | 0.00 | 36 | 941.4 |
| 20260905231827 | 36 | 141 | 11.3 | 20.9 | 0.00 | 0.00 | 0.00 | 37 | 941.4 |
| 20260905231725 | 36 | 137 | 12.9 | 20.9 | 0.00 | 0.00 | 0.00 | 36 | 941.3 |
| 20260905231625 | 36 | 121 | 11.3 | 20.9 | 0.00 | 0.00 | 0.00 | 36 | 941.3 |
| 20260905231525 | 36 | 119 | 11.3 | 19.3 | 0.00 | 0.00 | 0.00 | 36 | 941.3 |
| 20260905231424 | 36 | 121 | 11.3 | 19.3 | 0.00 | 0.00 | 0.00 | 36 | 941.3 |
| 20260905231319 | 36 | 137 | 11.3 | 19.3 | 0.00 | 0.00 | 0.00 | 36 | 941.3 |
| 20260905231219 | 36 | 59 | 11.3 | 19.3 | 0.00 | 0.00 | 0.00 | 36 | 941.3 |
| 20260905231119 | 36 | 153 | 11.3 | 19.3 | 0.00 | 0.00 | 0.00 | 36 | 941.3 |
| 20260905231019 | 36 | 105 | 11.3 | 22.5 | 0.00 | 0.00 | 0.00 | 36 | 941.3 |
| 20260905230918 | 36 | 116 | 11.3 | 22.5 | 0.00 | 0.00 | 0.00 | 36 | 941.4 |
| 20260905230813 | 36 | 101 | 11.3 | 22.5 | 0.00 | 0.00 | 0.00 | 36 | 941.4 |
| 20260905230713 | 36 | 162 | 9.7 | 22.5 | 0.00 | 0.00 | 0.00 | 36 | 941.3 |
| 20260905230613 | 36 | 167 | 11.3 | 24.1 | 0.00 | 0.00 | 0.00 | 36 | 941.3 |
| 20260905230513 | 36 | 144 | 11.3 | 24.1 | 0.00 | 0.00 | 0.00 | 37 | 941.3 |
| 20260905230412 | 36 | 108 | 11.3 | 24.1 | 0.00 | 0.00 | 0.00 | 37 | 941.3 |
| 20260905230306 | 36 | 103 | 9.7 | 24.1 | 0.00 | 0.00 | 0.00 | 37 | 941.2 |
| 20260905230206 | 36 | 142 | 9.7 | 24.1 | 0.00 | 0.00 | 0.00 | 38 | 941.2 |
| 20260905230106 | 36 | 101 | 9.7 | 24.1 | 0.00 | 0.00 | 0.00 | 38 | 941.2 |
| 20260905230007 | 36 | 63 | 9.7 | 24.1 | 0.00 | 0.00 | 0.00 | 37 | 941.3 |
| 20260905225907 | 36 | 100 | 11.3 | 24.1 | 0.00 | 0.00 | 0.00 | 36 | 941.3 |
| 20260905225800 | 36 | 89 | 11.3 | 24.1 | 0.00 | 0.00 | 0.00 | 37 | 941.3 |
| 20260905225700 | 36 | 121 | 9.7 | 24.1 | 0.00 | 0.00 | 0.00 | 37 | 941.3 |